Observation data for Odell on 07/20/2019      Previous  Date       Current Mesonet Observations  Soil Data  Daily Summary Page  Observations in Plain Language
KOD1 200500Z 15013KT 30/19 A2986 RMK A01 T02950189  RH  053%=      5-min Rain = 0
KOD1 200501Z 15013KT 30/19 A2986 RMK A01 T02950189  RH  053%=      5-min Rain = 0
KOD1 200502Z 15015KT 30/19 A2986 RMK A01 T02950189  RH  053%=      5-min Rain = 0
KOD1 200503Z 15014KT 30/19 A2986 RMK A01 T02950189  RH  053%=      5-min Rain = 0
KOD1 200504Z 15012G18KT 30/19 A2986 RMK A01 T02950189  RH  053%=      5-min Rain = 0
KOD1 200505Z 15015KT 30/19 A2986 RMK A01 T02950189  RH  053%=      5-min Rain = 0
KOD1 200506Z 15015KT 30/19 A2986 RMK A01 T02950189  RH  053%=      5-min Rain = 0
KOD1 200507Z 15015KT 30/19 A2986 RMK A01 T02950189  RH  053%=      5-min Rain = 0
KOD1 200508Z 15015KT 30/19 A2986 RMK A01 T02950189  RH  053%=      5-min Rain = 0
KOD1 200509Z 15016KT 30/19 A2986 RMK A01 T02950189  RH  053%=      5-min Rain = 0
KOD1 200510Z 15014KT 30/19 A2986 RMK A01 T02950189  RH  053%=      5-min Rain = 0
KOD1 200511Z 16015KT 29/19 A2986 RMK A01 T02940189  RH  053%=      5-min Rain = 0
KOD1 200512Z 15015KT 30/19 A2986 RMK A01 T02950189  RH  053%=      5-min Rain = 0
KOD1 200513Z 15015KT 30/19 A2986 RMK A01 T02950190  RH  053%=      5-min Rain = 0
KOD1 200514Z 15014KT 29/19 A2986 RMK A01 T02940190  RH  053%=      5-min Rain = 0
KOD1 200515Z 15013KT 29/19 A2986 RMK A01 T02940190  RH  054%=      5-min Rain = 0
KOD1 200516Z 15013KT 29/19 A2986 RMK A01 T02940190  RH  054%=      5-min Rain = 0
KOD1 200517Z 16013KT 29/19 A2987 RMK A01 T02930190  RH  054%=      5-min Rain = 0
KOD1 200518Z 16015KT 29/19 A2986 RMK A01 T02930190  RH  054%=      5-min Rain = 0
KOD1 200519Z 16014KT 29/19 A2986 RMK A01 T02930190  RH  054%=      5-min Rain = 0
KOD1 200520Z 15016KT 29/19 A2986 RMK A01 T02940191  RH  054%=      5-min Rain = 0
KOD1 200521Z 15014KT 29/19 A2986 RMK A01 T02930191  RH  054%=      5-min Rain = 0
KOD1 200522Z 16013KT 29/19 A2986 RMK A01 T02930191  RH  054%=      5-min Rain = 0
KOD1 200523Z 16014KT 29/19 A2986 RMK A01 T02920191  RH  054%=      5-min Rain = 0
KOD1 200524Z 16015KT 29/19 A2986 RMK A01 T02920191  RH  054%=      5-min Rain = 0
KOD1 200525Z 15014KT 29/19 A2986 RMK A01 T02920191  RH  054%=      5-min Rain = 0
KOD1 200526Z 16013KT 29/19 A2986 RMK A01 T02920191  RH  054%=      5-min Rain = 0
KOD1 200527Z 16015KT 29/19 A2986 RMK A01 T02920192  RH  055%=      5-min Rain = 0
KOD1 200528Z 15015KT 29/19 A2986 RMK A01 T02920191  RH  055%=      5-min Rain = 0
KOD1 200529Z 15014KT 29/19 A2986 RMK A01 T02920191  RH  055%=      5-min Rain = 0
KOD1 200530Z 16015KT 29/19 A2986 RMK A01 T02920191  RH  055%=      5-min Rain = 0
KOD1 200531Z 16013KT 29/19 A2986 RMK A01 T02920192  RH  055%=      5-min Rain = 0
KOD1 200532Z 16014KT 29/19 A2986 RMK A01 T02910192  RH  055%=      5-min Rain = 0
KOD1 200533Z 15014KT 29/19 A2986 RMK A01 T02910192  RH  055%=      5-min Rain = 0
KOD1 200534Z 16013KT 29/19 A2987 RMK A01 T02910192  RH  055%=      5-min Rain = 0
KOD1 200535Z 16014KT 29/19 A2987 RMK A01 T02910192  RH  055%=      5-min Rain = 0
KOD1 200536Z 16013KT 29/19 A2987 RMK A01 T02910192  RH  055%=      5-min Rain = 0
KOD1 200537Z 16013KT 29/19 A2987 RMK A01 T02910192  RH  055%=      5-min Rain = 0
KOD1 200538Z 16014KT 29/19 A2987 RMK A01 T02900192  RH  055%=      5-min Rain = 0
KOD1 200539Z 15013KT 29/19 A2987 RMK A01 T02910192  RH  055%=      5-min Rain = 0
KOD1 200540Z 16012KT 29/19 A2987 RMK A01 T02910192  RH  055%=      5-min Rain = 0
KOD1 200541Z 16013KT 29/19 A2987 RMK A01 T02900192  RH  056%=      5-min Rain = 0
KOD1 200542Z 16013KT 29/19 A2987 RMK A01 T02900193  RH  056%=      5-min Rain = 0
KOD1 200543Z 16014KT 29/19 A2986 RMK A01 T02900193  RH  056%=      5-min Rain = 0
KOD1 200544Z 15014KT 29/19 A2986 RMK A01 T02900193  RH  056%=      5-min Rain = 0
KOD1 200545Z 16014KT 29/19 A2986 RMK A01 T02900193  RH  056%=      5-min Rain = 0
KOD1 200546Z 16014KT 29/19 A2986 RMK A01 T02900193  RH  056%=      5-min Rain = 0
KOD1 200547Z 16012KT 29/19 A2986 RMK A01 T02900193  RH  056%=      5-min Rain = 0
KOD1 200548Z 16012KT 29/19 A2986 RMK A01 T02890193  RH  056%=      5-min Rain = 0
KOD1 200549Z 16014KT 29/19 A2986 RMK A01 T02880193  RH  056%=      5-min Rain = 0
KOD1 200550Z 16014KT 29/19 A2986 RMK A01 T02890193  RH  056%=      5-min Rain = 0
KOD1 200551Z 16013KT 29/19 A2986 RMK A01 T02890193  RH  056%=      5-min Rain = 0
KOD1 200552Z 16013KT 29/19 A2986 RMK A01 T02890193  RH  056%=      5-min Rain = 0
KOD1 200553Z 16013KT 29/19 A2986 RMK A01 T02880193  RH  056%=      5-min Rain = 0
KOD1 200554Z 15015KT 29/19 A2986 RMK A01 T02880193  RH  056%=      5-min Rain = 0
KOD1 200555Z 16013KT 29/19 A2986 RMK A01 T02880193  RH  056%=      5-min Rain = 0
KOD1 200556Z 16013KT 29/19 A2986 RMK A01 T02880193  RH  056%=      5-min Rain = 0
KOD1 200557Z 16014KT 29/19 A2986 RMK A01 T02880193  RH  057%=      5-min Rain = 0
KOD1 200558Z 16012KT 29/19 A2986 RMK A01 T02880193  RH  057%=      5-min Rain = 0
KOD1 200559Z 16012KT 29/19 A2986 RMK A01 T02870193  RH  057%=      5-min Rain = 0
KOD1 200600Z 16012KT 29/19 A2986 RMK A01 T02860193  RH  057%=      5-min Rain = 0
KOD1 200601Z 15011KT 29/19 A2986 RMK A01 T02860193  RH  057%=      5-min Rain = 0
KOD1 200602Z 16014KT 29/19 A2986 RMK A01 T02860193  RH  057%=      5-min Rain = 0
KOD1 200603Z 16013KT 29/19 A2986 RMK A01 T02860193  RH  057%=      5-min Rain = 0
KOD1 200604Z 16012KT 29/19 A2986 RMK A01 T02860193  RH  057%=      5-min Rain = 0
KOD1 200605Z 15013KT 29/19 A2986 RMK A01 T02860194  RH  057%=      5-min Rain = 0
KOD1 200606Z 16012KT 29/19 A2986 RMK A01 T02860193  RH  057%=      5-min Rain = 0
KOD1 200607Z 16014KT 29/19 A2986 RMK A01 T02860193  RH  057%=      5-min Rain = 0
KOD1 200608Z 16012KT 29/19 A2986 RMK A01 T02860193  RH  057%=      5-min Rain = 0
KOD1 200609Z 15013KT 29/19 A2986 RMK A01 T02860193  RH  057%=      5-min Rain = 0
KOD1 200610Z 16013KT 29/19 A2986 RMK A01 T02860193  RH  057%=      5-min Rain = 0
KOD1 200611Z 16013KT 29/19 A2986 RMK A01 T02860193  RH  057%=      5-min Rain = 0
KOD1 200612Z 16014KT 29/19 A2986 RMK A01 T02860194  RH  057%=      5-min Rain = 0
KOD1 200613Z 16013KT 29/19 A2986 RMK A01 T02860194  RH  057%=      5-min Rain = 0
KOD1 200614Z 16014KT 29/19 A2986 RMK A01 T02860194  RH  057%=      5-min Rain = 0
KOD1 200615Z 16013KT 29/19 A2986 RMK A01 T02860194  RH  057%=      5-min Rain = 0
KOD1 200616Z 16012KT 29/19 A2986 RMK A01 T02860193  RH  057%=      5-min Rain = 0
KOD1 200617Z 16011KT 29/19 A2986 RMK A01 T02850194  RH  058%=      5-min Rain = 0
KOD1 200618Z 16012KT 28/19 A2986 RMK A01 T02840194  RH  058%=      5-min Rain = 0
KOD1 200619Z 16014KT 28/19 A2986 RMK A01 T02840194  RH  058%=      5-min Rain = 0
KOD1 200620Z 16013KT 29/19 A2986 RMK A01 T02850193  RH  058%=      5-min Rain = 0
KOD1 200621Z 16012KT 29/19 A2986 RMK A01 T02860194  RH  058%=      5-min Rain = 0
KOD1 200622Z 16013KT 29/19 A2986 RMK A01 T02850194  RH  058%=      5-min Rain = 0
KOD1 200623Z 16011KT 29/19 A2986 RMK A01 T02850194  RH  058%=      5-min Rain = 0
KOD1 200624Z 16012KT 29/19 A2986 RMK A01 T02850194  RH  058%=      5-min Rain = 0
KOD1 200625Z 16013KT 29/19 A2986 RMK A01 T02850194  RH  058%=      5-min Rain = 0
KOD1 200626Z 16012KT 29/19 A2986 RMK A01 T02850194  RH  058%=      5-min Rain = 0
KOD1 200627Z 16013KT 29/19 A2986 RMK A01 T02850194  RH  058%=      5-min Rain = 0
KOD1 200628Z 16013G18KT 29/19 A2986 RMK A01 T02850194  RH  058%=      5-min Rain = 0
KOD1 200629Z 16016KT 29/19 A2986 RMK A01 T02860194  RH  057%=      5-min Rain = 0
KOD1 200630Z 16011KT 29/19 A2986 RMK A01 T02870194  RH  057%=      5-min Rain = 0
KOD1 200631Z 16014KT 29/19 A2986 RMK A01 T02860194  RH  057%=      5-min Rain = 0
KOD1 200632Z 17016KT 29/19 A2986 RMK A01 T02870194  RH  057%=      5-min Rain = 0
KOD1 200633Z 16014KT 29/19 A2986 RMK A01 T02870194  RH  057%=      5-min Rain = 0
KOD1 200634Z 16013KT 29/19 A2986 RMK A01 T02870194  RH  057%=      5-min Rain = 0
KOD1 200635Z 16013KT 29/19 A2986 RMK A01 T02860194  RH  057%=      5-min Rain = 0
KOD1 200636Z 17012KT 29/19 A2986 RMK A01 T02860194  RH  057%=      5-min Rain = 0
KOD1 200637Z 16011KT 29/20 A2986 RMK A01 T02860195  RH  058%=      5-min Rain = 0
KOD1 200638Z 16014G19KT 29/19 A2986 RMK A01 T02850194  RH  058%=      5-min Rain = 0
KOD1 200639Z 16015KT 29/19 A2986 RMK A01 T02860194  RH  058%=      5-min Rain = 0
KOD1 200640Z 16013KT 29/19 A2986 RMK A01 T02860194  RH  058%=      5-min Rain = 0
KOD1 200641Z 16013G18KT 29/20 A2986 RMK A01 T02850195  RH  058%=      5-min Rain = 0
KOD1 200642Z 16016G21KT 29/19 A2986 RMK A01 T02860194  RH  058%=      5-min Rain = 0
KOD1 200643Z 16013KT 29/19 A2986 RMK A01 T02860194  RH  057%=      5-min Rain = 0
KOD1 200644Z 17013KT 29/20 A2986 RMK A01 T02860195  RH  058%=      5-min Rain = 0
KOD1 200645Z 17013KT 29/20 A2986 RMK A01 T02860195  RH  058%=      5-min Rain = 0
KOD1 200646Z 16013G20KT 29/20 A2986 RMK A01 T02860195  RH  058%=      5-min Rain = 0
KOD1 200647Z 17016KT 29/19 A2986 RMK A01 T02860194  RH  058%=      5-min Rain = 0
KOD1 200648Z 17012KT 29/19 A2986 RMK A01 T02860194  RH  057%=      5-min Rain = 0
KOD1 200649Z 16013KT 29/19 A2986 RMK A01 T02860194  RH  058%=      5-min Rain = 0
KOD1 200650Z 17012KT 29/19 A2986 RMK A01 T02860194  RH  058%=      5-min Rain = 0
KOD1 200651Z 17014KT 29/19 A2986 RMK A01 T02850194  RH  058%=      5-min Rain = 0
KOD1 200652Z 17015KT 29/19 A2986 RMK A01 T02850194  RH  058%=      5-min Rain = 0
KOD1 200653Z 17015KT 29/19 A2986 RMK A01 T02860194  RH  058%=      5-min Rain = 0
KOD1 200654Z 17013KT 29/19 A2986 RMK A01 T02860194  RH  058%=      5-min Rain = 0
KOD1 200655Z 16012KT 29/19 A2986 RMK A01 T02860194  RH  058%=      5-min Rain = 0
KOD1 200656Z 16014KT 29/19 A2986 RMK A01 T02850194  RH  058%=      5-min Rain = 0
KOD1 200657Z 17014KT 29/19 A2986 RMK A01 T02850194  RH  058%=      5-min Rain = 0
KOD1 200658Z 16012KT 29/19 A2986 RMK A01 T02850194  RH  058%=      5-min Rain = 0
KOD1 200659Z 17012KT 29/19 A2986 RMK A01 T02850194  RH  058%=      5-min Rain = 0
KOD1 200700Z 16012KT 28/19 A2986 RMK A01 T02840194  RH  058%=      5-min Rain = 0
KOD1 200701Z 17013KT 28/19 A2986 RMK A01 T02840194  RH  058%=      5-min Rain = 0
KOD1 200702Z 17013KT 28/19 A2986 RMK A01 T02840194  RH  058%=      5-min Rain = 0
KOD1 200703Z 17012KT 28/19 A2986 RMK A01 T02840194  RH  058%=      5-min Rain = 0
KOD1 200704Z 17011G16KT 28/19 A2986 RMK A01 T02840194  RH  058%=      5-min Rain = 0
KOD1 200705Z 17012KT 28/19 A2986 RMK A01 T02840194  RH  058%=      5-min Rain = 0
KOD1 200706Z 17012KT 28/19 A2986 RMK A01 T02830193  RH  058%=      5-min Rain = 0
KOD1 200707Z 17011KT 28/19 A2986 RMK A01 T02830194  RH  058%=      5-min Rain = 0
KOD1 200708Z 17012KT 28/19 A2986 RMK A01 T02830194  RH  058%=      5-min Rain = 0
KOD1 200709Z 17011KT 28/19 A2986 RMK A01 T02830194  RH  058%=      5-min Rain = 0
KOD1 200710Z 17011KT 28/19 A2986 RMK A01 T02820194  RH  059%=      5-min Rain = 0
KOD1 200711Z 16011KT 28/19 A2986 RMK A01 T02820194  RH  059%=      5-min Rain = 0
KOD1 200712Z 17012KT 28/19 A2986 RMK A01 T02820194  RH  059%=      5-min Rain = 0
KOD1 200713Z 17011KT 28/19 A2986 RMK A01 T02820194  RH  059%=      5-min Rain = 0
KOD1 200714Z 17010KT 28/19 A2986 RMK A01 T02810194  RH  059%=      5-min Rain = 0
KOD1 200715Z 17012KT 28/19 A2986 RMK A01 T02810193  RH  059%=      5-min Rain = 0
KOD1 200716Z 17013KT 28/19 A2986 RMK A01 T02810193  RH  059%=      5-min Rain = 0
KOD1 200717Z 17013KT 28/19 A2986 RMK A01 T02820193  RH  058%=      5-min Rain = 0
KOD1 200718Z 17011KT 28/19 A2986 RMK A01 T02830193  RH  058%=      5-min Rain = 0
KOD1 200719Z 16014G19KT 28/19 A2986 RMK A01 T02820193  RH  058%=      5-min Rain = 0
KOD1 200720Z 17014KT 28/19 A2986 RMK A01 T02820193  RH  058%=      5-min Rain = 0
KOD1 200721Z 17014KT 28/19 A2986 RMK A01 T02830193  RH  058%=      5-min Rain = 0
KOD1 200722Z 17014KT 28/19 A2985 RMK A01 T02830193  RH  058%=      5-min Rain = 0
KOD1 200723Z 16013KT 28/19 A2985 RMK A01 T02820193  RH  058%=      5-min Rain = 0
KOD1 200724Z 17014KT 28/19 A2985 RMK A01 T02820193  RH  058%=      5-min Rain = 0
KOD1 200725Z 17012KT 28/19 A2985 RMK A01 T02820193  RH  058%=      5-min Rain = 0
KOD1 200726Z 16013KT 28/19 A2985 RMK A01 T02820193  RH  059%=      5-min Rain = 0
KOD1 200727Z 17015KT 28/19 A2985 RMK A01 T02820193  RH  058%=      5-min Rain = 0
KOD1 200728Z 17015KT 28/19 A2985 RMK A01 T02820192  RH  058%=      5-min Rain = 0
KOD1 200729Z 17012KT 28/19 A2985 RMK A01 T02830192  RH  058%=      5-min Rain = 0
KOD1 200730Z 17011KT 28/19 A2985 RMK A01 T02820193  RH  058%=      5-min Rain = 0
KOD1 200731Z 16012G17KT 28/19 A2985 RMK A01 T02810193  RH  059%=      5-min Rain = 0
KOD1 200732Z 17013KT 28/19 A2985 RMK A01 T02810192  RH  059%=      5-min Rain = 0
KOD1 200733Z 17013KT 28/19 A2985 RMK A01 T02810192  RH  059%=      5-min Rain = 0
KOD1 200734Z 17012KT 28/19 A2985 RMK A01 T02820192  RH  058%=      5-min Rain = 0
KOD1 200735Z 17013KT 28/19 A2985 RMK A01 T02810192  RH  059%=      5-min Rain = 0
KOD1 200736Z 17013KT 28/19 A2985 RMK A01 T02810192  RH  058%=      5-min Rain = 0
KOD1 200737Z 17013KT 28/19 A2985 RMK A01 T02810192  RH  058%=      5-min Rain = 0
KOD1 200738Z 17013KT 28/19 A2985 RMK A01 T02810192  RH  058%=      5-min Rain = 0
KOD1 200739Z 17014KT 28/19 A2985 RMK A01 T02810192  RH  058%=      5-min Rain = 0
KOD1 200740Z 17013KT 28/19 A2985 RMK A01 T02810192  RH  058%=      5-min Rain = 0
KOD1 200741Z 17012G17KT 28/19 A2985 RMK A01 T02810192  RH  058%=      5-min Rain = 0
KOD1 200742Z 17012G17KT 28/19 A2985 RMK A01 T02810192  RH  058%=      5-min Rain = 0
KOD1 200743Z 17014KT 28/19 A2985 RMK A01 T02800191  RH  058%=      5-min Rain = 0
KOD1 200744Z 17015KT 28/19 A2985 RMK A01 T02810191  RH  058%=      5-min Rain = 0
KOD1 200745Z 17013KT 28/19 A2985 RMK A01 T02820192  RH  058%=      5-min Rain = 0
KOD1 200746Z 17011KT 28/19 A2985 RMK A01 T02810192  RH  058%=      5-min Rain = 0
KOD1 200747Z 17012KT 28/19 A2985 RMK A01 T02800191  RH  058%=      5-min Rain = 0
KOD1 200748Z 17015KT 28/19 A2985 RMK A01 T02800191  RH  059%=      5-min Rain = 0
KOD1 200749Z 17013KT 28/19 A2985 RMK A01 T02800191  RH  058%=      5-min Rain = 0
KOD1 200750Z 17014KT 28/19 A2985 RMK A01 T02800191  RH  058%=      5-min Rain = 0
KOD1 200751Z 17013KT 28/19 A2985 RMK A01 T02800191  RH  058%=      5-min Rain = 0
KOD1 200752Z 17014KT 28/19 A2985 RMK A01 T02800191  RH  059%=      5-min Rain = 0
KOD1 200753Z 17013KT 28/19 A2985 RMK A01 T02800191  RH  059%=      5-min Rain = 0
KOD1 200754Z 17013KT 28/19 A2985 RMK A01 T02790191  RH  059%=      5-min Rain = 0
KOD1 200755Z 17014KT 28/19 A2985 RMK A01 T02800191  RH  059%=      5-min Rain = 0
KOD1 200756Z 16013KT 28/19 A2985 RMK A01 T02800191  RH  059%=      5-min Rain = 0
KOD1 200757Z 17012KT 28/19 A2985 RMK A01 T02790191  RH  059%=      5-min Rain = 0
KOD1 200758Z 17013KT 28/19 A2985 RMK A01 T02790191  RH  059%=      5-min Rain = 0
KOD1 200759Z 17011KT 28/19 A2985 RMK A01 T02780191  RH  059%=      5-min Rain = 0
KOD1 200800Z 17012KT 28/19 A2985 RMK A01 T02780191  RH  059%=      5-min Rain = 0
KOD1 200801Z 17015KT 28/19 A2985 RMK A01 T02780191  RH  059%=      5-min Rain = 0
KOD1 200802Z 17014KT 28/19 A2985 RMK A01 T02790191  RH  059%=      5-min Rain = 0
KOD1 200803Z 17012KT 28/19 A2985 RMK A01 T02790191  RH  059%=      5-min Rain = 0
KOD1 200804Z 17013KT 28/19 A2985 RMK A01 T02790191  RH  059%=      5-min Rain = 0
KOD1 200805Z 16011KT 28/19 A2985 RMK A01 T02790191  RH  059%=      5-min Rain = 0
KOD1 200806Z 17012KT 28/19 A2985 RMK A01 T02780191  RH  059%=      5-min Rain = 0
KOD1 200807Z 17012KT 28/19 A2985 RMK A01 T02780190  RH  059%=      5-min Rain = 0
KOD1 200808Z 16012KT 28/19 A2985 RMK A01 T02780191  RH  059%=      5-min Rain = 0
KOD1 200809Z 16011KT 28/19 A2985 RMK A01 T02780191  RH  059%=      5-min Rain = 0
KOD1 200810Z 17011KT 28/19 A2985 RMK A01 T02780191  RH  059%=      5-min Rain = 0
KOD1 200811Z 17012KT 28/19 A2985 RMK A01 T02780191  RH  059%=      5-min Rain = 0
KOD1 200812Z 17009KT 28/19 A2985 RMK A01 T02780191  RH  059%=      5-min Rain = 0
KOD1 200813Z 17012KT 28/19 A2985 RMK A01 T02770191  RH  059%=      5-min Rain = 0
KOD1 200814Z 17013KT 28/19 A2985 RMK A01 T02760190  RH  059%=      5-min Rain = 0
KOD1 200815Z 17011KT 28/19 A2985 RMK A01 T02770190  RH  059%=      5-min Rain = 0
KOD1 200816Z 17011KT 28/19 A2985 RMK A01 T02770190  RH  059%=      5-min Rain = 0
KOD1 200817Z 17012KT 28/19 A2985 RMK A01 T02770190  RH  059%=      5-min Rain = 0
KOD1 200818Z 17010KT 28/19 A2985 RMK A01 T02760190  RH  059%=      5-min Rain = 0
KOD1 200819Z 16011KT 28/19 A2985 RMK A01 T02760191  RH  060%=      5-min Rain = 0
KOD1 200820Z 16009KT 28/19 A2985 RMK A01 T02760191  RH  060%=      5-min Rain = 0
KOD1 200821Z 16010KT 28/19 A2985 RMK A01 T02750191  RH  060%=      5-min Rain = 0
KOD1 200822Z 17011KT 28/19 A2985 RMK A01 T02750191  RH  060%=      5-min Rain = 0
KOD1 200823Z 16010KT 28/19 A2985 RMK A01 T02750191  RH  060%=      5-min Rain = 0
KOD1 200824Z 17012KT 28/19 A2985 RMK A01 T02750191  RH  060%=      5-min Rain = 0
KOD1 200825Z 17011KT 28/19 A2985 RMK A01 T02750191  RH  060%=      5-min Rain = 0
KOD1 200826Z 17012KT 28/19 A2985 RMK A01 T02750191  RH  060%=      5-min Rain = 0
KOD1 200827Z 16011KT 28/19 A2985 RMK A01 T02750190  RH  060%=      5-min Rain = 0
KOD1 200828Z 16012KT 28/19 A2985 RMK A01 T02750191  RH  060%=      5-min Rain = 0
KOD1 200829Z 16012KT 28/19 A2985 RMK A01 T02750191  RH  060%=      5-min Rain = 0
KOD1 200830Z 17010KT 28/19 A2985 RMK A01 T02750190  RH  060%=      5-min Rain = 0
KOD1 200831Z 16011KT 27/19 A2985 RMK A01 T02740190  RH  060%=      5-min Rain = 0
KOD1 200832Z 17010KT 27/19 A2985 RMK A01 T02740190  RH  060%=      5-min Rain = 0
KOD1 200833Z 16010KT 27/19 A2985 RMK A01 T02740190  RH  060%=      5-min Rain = 0
KOD1 200834Z 17010KT 27/19 A2985 RMK A01 T02740190  RH  060%=      5-min Rain = 0
KOD1 200835Z 16009KT 27/19 A2985 RMK A01 T02730191  RH  061%=      5-min Rain = 0
KOD1 200836Z 16010KT 27/19 A2985 RMK A01 T02720191  RH  061%=      5-min Rain = 0
KOD1 200837Z 16012KT 27/19 A2985 RMK A01 T02720191  RH  061%=      5-min Rain = 0
KOD1 200838Z 16010KT 27/19 A2985 RMK A01 T02720190  RH  061%=      5-min Rain = 0
KOD1 200839Z 17010KT 27/19 A2985 RMK A01 T02730191  RH  061%=      5-min Rain = 0
KOD1 200840Z 16010KT 27/19 A2985 RMK A01 T02730191  RH  061%=      5-min Rain = 0
KOD1 200841Z 16009KT 27/19 A2985 RMK A01 T02720190  RH  061%=      5-min Rain = 0
KOD1 200842Z 17011G16KT 27/19 A2985 RMK A01 T02720190  RH  061%=      5-min Rain = 0
KOD1 200843Z 16012KT 27/19 A2985 RMK A01 T02720190  RH  061%=      5-min Rain = 0
KOD1 200844Z 16011KT 27/19 A2985 RMK A01 T02730191  RH  061%=      5-min Rain = 0
KOD1 200845Z 17009KT 27/19 A2985 RMK A01 T02720191  RH  061%=      5-min Rain = 0
KOD1 200846Z 16010KT 27/19 A2985 RMK A01 T02720190  RH  061%=      5-min Rain = 0
KOD1 200847Z 17011KT 27/19 A2985 RMK A01 T02720190  RH  061%=      5-min Rain = 0
KOD1 200848Z 17010KT 27/19 A2985 RMK A01 T02720190  RH  061%=      5-min Rain = 0
KOD1 200849Z 16011KT 27/19 A2985 RMK A01 T02720190  RH  061%=      5-min Rain = 0
KOD1 200850Z 16009KT 27/19 A2985 RMK A01 T02720190  RH  061%=      5-min Rain = 0
KOD1 200851Z 17011KT 27/19 A2985 RMK A01 T02710190  RH  061%=      5-min Rain = 0
KOD1 200852Z 16009KT 27/19 A2985 RMK A01 T02710190  RH  061%=      5-min Rain = 0
KOD1 200853Z 16011KT 27/19 A2985 RMK A01 T02710190  RH  061%=      5-min Rain = 0
KOD1 200854Z 16010KT 27/19 A2985 RMK A01 T02700190  RH  061%=      5-min Rain = 0
KOD1 200855Z 16012KT 27/19 A2985 RMK A01 T02700190  RH  061%=      5-min Rain = 0
KOD1 200856Z 16010KT 27/19 A2985 RMK A01 T02710190  RH  061%=      5-min Rain = 0
KOD1 200857Z 17010KT 27/19 A2985 RMK A01 T02710190  RH  061%=      5-min Rain = 0
KOD1 200858Z 16011KT 27/19 A2985 RMK A01 T02700190  RH  061%=      5-min Rain = 0
KOD1 200859Z 16009KT 27/19 A2985 RMK A01 T02700189  RH  061%=      5-min Rain = 0
KOD1 200900Z 16009KT 27/19 A2985 RMK A01 T02700189  RH  061%=      5-min Rain = 0
KOD1 200901Z 16010KT 27/19 A2985 RMK A01 T02700189  RH  061%=      5-min Rain = 0
KOD1 200902Z 17010KT 27/19 A2985 RMK A01 T02700189  RH  061%=      5-min Rain = 0
KOD1 200903Z 16011KT 27/19 A2985 RMK A01 T02700189  RH  061%=      5-min Rain = 0
KOD1 200904Z 16010KT 27/19 A2985 RMK A01 T02700189  RH  061%=      5-min Rain = 0
KOD1 200905Z 16011KT 27/19 A2985 RMK A01 T02700189  RH  061%=      5-min Rain = 0
KOD1 200906Z 16010KT 27/19 A2985 RMK A01 T02700190  RH  061%=      5-min Rain = 0
KOD1 200907Z 16009KT 27/19 A2985 RMK A01 T02690189  RH  061%=      5-min Rain = 0
KOD1 200908Z 17010KT 27/19 A2985 RMK A01 T02690189  RH  062%=      5-min Rain = 0
KOD1 200909Z 16010KT 27/19 A2985 RMK A01 T02690189  RH  062%=      5-min Rain = 0
KOD1 200910Z 17010KT 27/19 A2985 RMK A01 T02680189  RH  062%=      5-min Rain = 0
KOD1 200911Z 17010KT 27/19 A2985 RMK A01 T02680189  RH  062%=      5-min Rain = 0
KOD1 200912Z 16009KT 27/19 A2985 RMK A01 T02680189  RH  062%=      5-min Rain = 0
KOD1 200913Z 16008KT 27/19 A2985 RMK A01 T02680189  RH  062%=      5-min Rain = 0
KOD1 200914Z 17009KT 27/19 A2985 RMK A01 T02670189  RH  062%=      5-min Rain = 0
KOD1 200915Z 17008KT 27/19 A2985 RMK A01 T02670188  RH  062%=      5-min Rain = 0
KOD1 200916Z 17010KT 27/19 A2985 RMK A01 T02670189  RH  062%=      5-min Rain = 0
KOD1 200917Z 17009KT 27/19 A2985 RMK A01 T02670189  RH  062%=      5-min Rain = 0
KOD1 200918Z 17009KT 27/19 A2985 RMK A01 T02670189  RH  062%=      5-min Rain = 0
KOD1 200919Z 16010KT 27/19 A2985 RMK A01 T02660189  RH  062%=      5-min Rain = 0
KOD1 200920Z 17009KT 27/19 A2985 RMK A01 T02660188  RH  062%=      5-min Rain = 0
KOD1 200921Z 17009KT 27/19 A2985 RMK A01 T02660188  RH  062%=      5-min Rain = 0
KOD1 200922Z 17008KT 27/19 A2985 RMK A01 T02660189  RH  063%=      5-min Rain = 0
KOD1 200923Z 16009KT 27/19 A2985 RMK A01 T02650188  RH  063%=      5-min Rain = 0
KOD1 200924Z 16010KT 27/19 A2985 RMK A01 T02650188  RH  063%=      5-min Rain = 0
KOD1 200925Z 17009KT 27/19 A2985 RMK A01 T02650188  RH  063%=      5-min Rain = 0
KOD1 200926Z 16009KT 27/19 A2985 RMK A01 T02650188  RH  063%=      5-min Rain = 0
KOD1 200927Z 16009KT 27/19 A2985 RMK A01 T02650188  RH  063%=      5-min Rain = 0
KOD1 200928Z 16010KT 27/19 A2985 RMK A01 T02650188  RH  063%=      5-min Rain = 0
KOD1 200929Z 17010KT 27/19 A2985 RMK A01 T02650189  RH  063%=      5-min Rain = 0
KOD1 200930Z 17009KT 27/19 A2985 RMK A01 T02650188  RH  063%=      5-min Rain = 0
KOD1 200931Z 17010KT 27/19 A2985 RMK A01 T02650188  RH  063%=      5-min Rain = 0
KOD1 200932Z 16009KT 27/19 A2986 RMK A01 T02650189  RH  063%=      5-min Rain = 0
KOD1 200933Z 16009KT 27/19 A2986 RMK A01 T02650189  RH  063%=      5-min Rain = 0
KOD1 200934Z 17008KT 26/19 A2986 RMK A01 T02640188  RH  063%=      5-min Rain = 0
KOD1 200935Z 17008KT 26/19 A2986 RMK A01 T02640189  RH  063%=      5-min Rain = 0
KOD1 200936Z 16008KT 26/19 A2986 RMK A01 T02630189  RH  064%=      5-min Rain = 0
KOD1 200937Z 17009KT 26/19 A2986 RMK A01 T02630188  RH  064%=      5-min Rain = 0
KOD1 200938Z 17009KT 26/19 A2986 RMK A01 T02630188  RH  063%=      5-min Rain = 0
KOD1 200939Z 17008KT 26/19 A2986 RMK A01 T02640189  RH  063%=      5-min Rain = 0
KOD1 200940Z 16008KT 26/19 A2986 RMK A01 T02630188  RH  063%=      5-min Rain = 0
KOD1 200941Z 16009KT 26/19 A2986 RMK A01 T02630189  RH  064%=      5-min Rain = 0
KOD1 200942Z 16008KT 26/19 A2986 RMK A01 T02630188  RH  064%=      5-min Rain = 0
KOD1 200943Z 16008KT 26/19 A2986 RMK A01 T02630189  RH  064%=      5-min Rain = 0
KOD1 200944Z 16007KT 26/19 A2986 RMK A01 T02630189  RH  064%=      5-min Rain = 0
KOD1 200945Z 16007KT 26/19 A2986 RMK A01 T02620189  RH  064%=      5-min Rain = 0
KOD1 200946Z 16008KT 26/19 A2986 RMK A01 T02620189  RH  064%=      5-min Rain = 0
KOD1 200947Z 16008KT 26/19 A2986 RMK A01 T02610189  RH  064%=      5-min Rain = 0
KOD1 200948Z 16008KT 26/19 A2986 RMK A01 T02610189  RH  065%=      5-min Rain = 0
KOD1 200949Z 16007KT 26/19 A2986 RMK A01 T02610188  RH  064%=      5-min Rain = 0
KOD1 200950Z 16009KT 26/19 A2986 RMK A01 T02610189  RH  064%=      5-min Rain = 0
KOD1 200951Z 16007KT 26/19 A2986 RMK A01 T02610189  RH  064%=      5-min Rain = 0
KOD1 200952Z 15008KT 26/19 A2986 RMK A01 T02610189  RH  064%=      5-min Rain = 0
KOD1 200953Z 16008KT 26/19 A2986 RMK A01 T02610189  RH  065%=      5-min Rain = 0
KOD1 200954Z 16008KT 26/19 A2986 RMK A01 T02610189  RH  065%=      5-min Rain = 0
KOD1 200955Z 16008KT 26/19 A2986 RMK A01 T02600189  RH  065%=      5-min Rain = 0
KOD1 200956Z 16009KT 26/19 A2986 RMK A01 T02600189  RH  065%=      5-min Rain = 0
KOD1 200957Z 15008KT 26/19 A2986 RMK A01 T02600189  RH  065%=      5-min Rain = 0
KOD1 200958Z 15009KT 26/19 A2986 RMK A01 T02600189  RH  065%=      5-min Rain = 0
KOD1 200959Z 16010KT 26/19 A2986 RMK A01 T02610189  RH  065%=      5-min Rain = 0
KOD1 201000Z 16009KT 26/19 A2986 RMK A01 T02610189  RH  064%=      5-min Rain = 0
KOD1 201001Z 16009KT 26/19 A2986 RMK A01 T02610189  RH  064%=      5-min Rain = 0
KOD1 201002Z 16008KT 26/19 A2986 RMK A01 T02610189  RH  064%=      5-min Rain = 0
KOD1 201003Z 16009KT 26/19 A2986 RMK A01 T02610189  RH  065%=      5-min Rain = 0
KOD1 201004Z 16007KT 26/19 A2986 RMK A01 T02600189  RH  065%=      5-min Rain = 0
KOD1 201005Z 16009KT 26/19 A2986 RMK A01 T02600189  RH  065%=      5-min Rain = 0
KOD1 201006Z 16009KT 26/19 A2986 RMK A01 T02600189  RH  065%=      5-min Rain = 0
KOD1 201007Z 16008KT 26/19 A2986 RMK A01 T02610189  RH  065%=      5-min Rain = 0
KOD1 201008Z 16007KT 26/19 A2986 RMK A01 T02610189  RH  065%=      5-min Rain = 0
KOD1 201009Z 16009KT 26/19 A2987 RMK A01 T02610189  RH  065%=      5-min Rain = 0
KOD1 201010Z 16009KT 26/19 A2987 RMK A01 T02600189  RH  065%=      5-min Rain = 0
KOD1 201011Z 16008KT 26/19 A2987 RMK A01 T02600189  RH  065%=      5-min Rain = 0
KOD1 201012Z 16009KT 26/19 A2987 RMK A01 T02600189  RH  065%=      5-min Rain = 0
KOD1 201013Z 16008KT 26/19 A2987 RMK A01 T02600189  RH  065%=      5-min Rain = 0
KOD1 201014Z 16007KT 26/19 A2987 RMK A01 T02600189  RH  065%=      5-min Rain = 0
KOD1 201015Z 16008KT 26/19 A2987 RMK A01 T02590189  RH  065%=      5-min Rain = 0
KOD1 201016Z 16009KT 26/19 A2987 RMK A01 T02600189  RH  065%=      5-min Rain = 0
KOD1 201017Z 16008KT 26/19 A2987 RMK A01 T02590189  RH  065%=      5-min Rain = 0
KOD1 201018Z 16008KT 26/19 A2987 RMK A01 T02600189  RH  065%=      5-min Rain = 0
KOD1 201019Z 16009KT 26/19 A2987 RMK A01 T02590189  RH  065%=      5-min Rain = 0
KOD1 201020Z 16008KT 26/19 A2987 RMK A01 T02590189  RH  065%=      5-min Rain = 0
KOD1 201021Z 15007KT 26/19 A2987 RMK A01 T02590189  RH  065%=      5-min Rain = 0
KOD1 201022Z 16007KT 26/19 A2987 RMK A01 T02590189  RH  066%=      5-min Rain = 0
KOD1 201023Z 16010KT 26/19 A2987 RMK A01 T02590190  RH  066%=      5-min Rain = 0
KOD1 201024Z 15009KT 26/19 A2987 RMK A01 T02590189  RH  065%=      5-min Rain = 0
KOD1 201025Z 15008KT 26/19 A2987 RMK A01 T02600189  RH  065%=      5-min Rain = 0
KOD1 201026Z 15007KT 26/19 A2987 RMK A01 T02600190  RH  065%=      5-min Rain = 0
KOD1 201027Z 16007KT 26/19 A2987 RMK A01 T02590189  RH  066%=      5-min Rain = 0
KOD1 201028Z 16008KT 26/19 A2987 RMK A01 T02580189  RH  066%=      5-min Rain = 0
KOD1 201029Z 16009KT 26/19 A2987 RMK A01 T02580189  RH  066%=      5-min Rain = 0
KOD1 201030Z 16008KT 26/19 A2987 RMK A01 T02590189  RH  065%=      5-min Rain = 0
KOD1 201031Z 16007KT 26/19 A2987 RMK A01 T02590190  RH  065%=      5-min Rain = 0
KOD1 201032Z 15008KT 26/19 A2987 RMK A01 T02590190  RH  066%=      5-min Rain = 0
KOD1 201033Z 15008KT 26/19 A2987 RMK A01 T02580190  RH  066%=      5-min Rain = 0
KOD1 201034Z 16008KT 26/19 A2987 RMK A01 T02580189  RH  066%=      5-min Rain = 0
KOD1 201035Z 16010KT 26/19 A2987 RMK A01 T02590189  RH  066%=      5-min Rain = 0
KOD1 201036Z 16009KT 26/19 A2987 RMK A01 T02590189  RH  065%=      5-min Rain = 0
KOD1 201037Z 17008KT 26/19 A2987 RMK A01 T02590189  RH  065%=      5-min Rain = 0
KOD1 201038Z 16006KT 26/19 A2987 RMK A01 T02590190  RH  066%=      5-min Rain = 0
KOD1 201039Z 17007KT 26/19 A2987 RMK A01 T02580190  RH  066%=      5-min Rain = 0
KOD1 201040Z 17007KT 26/19 A2987 RMK A01 T02580190  RH  066%=      5-min Rain = 0
KOD1 201041Z 16007KT 26/19 A2987 RMK A01 T02570190  RH  066%=      5-min Rain = 0
KOD1 201042Z 17008KT 26/19 A2987 RMK A01 T02570190  RH  066%=      5-min Rain = 0
KOD1 201043Z 16008KT 26/19 A2987 RMK A01 T02570190  RH  066%=      5-min Rain = 0
KOD1 201044Z 16008KT 26/19 A2987 RMK A01 T02570190  RH  066%=      5-min Rain = 0
KOD1 201045Z 17006KT 26/19 A2987 RMK A01 T02580190  RH  066%=      5-min Rain = 0
KOD1 201046Z 17007KT 26/19 A2987 RMK A01 T02570190  RH  066%=      5-min Rain = 0
KOD1 201047Z 17007KT 26/19 A2987 RMK A01 T02570190  RH  067%=      5-min Rain = 0
KOD1 201048Z 16007KT 26/19 A2987 RMK A01 T02580190  RH  066%=      5-min Rain = 0
KOD1 201049Z 16009KT 26/19 A2987 RMK A01 T02580191  RH  066%=      5-min Rain = 0
KOD1 201050Z 17008KT 26/19 A2987 RMK A01 T02580190  RH  066%=      5-min Rain = 0
KOD1 201051Z 16007KT 26/19 A2987 RMK A01 T02580191  RH  066%=      5-min Rain = 0
KOD1 201052Z 16008KT 26/19 A2987 RMK A01 T02580191  RH  066%=      5-min Rain = 0
KOD1 201053Z 16008KT 26/19 A2987 RMK A01 T02570191  RH  067%=      5-min Rain = 0
KOD1 201054Z 16007KT 26/19 A2987 RMK A01 T02570191  RH  067%=      5-min Rain = 0
KOD1 201055Z 17008KT 26/19 A2987 RMK A01 T02570191  RH  067%=      5-min Rain = 0
KOD1 201056Z 16008KT 26/19 A2987 RMK A01 T02570191  RH  067%=      5-min Rain = 0
KOD1 201057Z 16007KT 26/19 A2987 RMK A01 T02570191  RH  067%=      5-min Rain = 0
KOD1 201058Z 16007KT 26/19 A2987 RMK A01 T02570191  RH  067%=      5-min Rain = 0
KOD1 201059Z 16007KT 26/19 A2987 RMK A01 T02560191  RH  067%=      5-min Rain = 0
KOD1 201100Z 16006KT 26/19 A2987 RMK A01 T02560191  RH  067%=      5-min Rain = 0
KOD1 201101Z 16007KT 26/19 A2987 RMK A01 T02560191  RH  067%=      5-min Rain = 0
KOD1 201102Z 16006KT 26/19 A2987 RMK A01 T02560191  RH  067%=      5-min Rain = 0
KOD1 201103Z 16007KT 26/19 A2987 RMK A01 T02560191  RH  067%=      5-min Rain = 0
KOD1 201104Z 16007KT 26/19 A2988 RMK A01 T02570191  RH  067%=      5-min Rain = 0
KOD1 201105Z 16006KT 26/19 A2988 RMK A01 T02570192  RH  067%=      5-min Rain = 0
KOD1 201106Z 16007KT 26/19 A2988 RMK A01 T02570192  RH  067%=      5-min Rain = 0
KOD1 201107Z 16008KT 26/19 A2988 RMK A01 T02560192  RH  068%=      5-min Rain = 0
KOD1 201108Z 16007KT 26/19 A2988 RMK A01 T02560192  RH  067%=      5-min Rain = 0
KOD1 201109Z 17007KT 26/19 A2988 RMK A01 T02570192  RH  067%=      5-min Rain = 0
KOD1 201110Z 16006KT 26/19 A2988 RMK A01 T02560192  RH  068%=      5-min Rain = 0
KOD1 201111Z 18007KT 26/19 A2988 RMK A01 T02560192  RH  068%=      5-min Rain = 0
KOD1 201112Z 17007KT 26/19 A2988 RMK A01 T02560192  RH  068%=      5-min Rain = 0
KOD1 201113Z 17006KT 26/19 A2988 RMK A01 T02560192  RH  068%=      5-min Rain = 0
KOD1 201114Z 17005KT 26/19 A2988 RMK A01 T02560192  RH  068%=      5-min Rain = 0
KOD1 201115Z 16007KT 26/19 A2988 RMK A01 T02550192  RH  068%=      5-min Rain = 0
KOD1 201116Z 17007KT 26/19 A2988 RMK A01 T02560192  RH  068%=      5-min Rain = 0
KOD1 201117Z 17006KT 26/19 A2988 RMK A01 T02560192  RH  068%=      5-min Rain = 0
KOD1 201118Z 17006KT 26/19 A2988 RMK A01 T02560192  RH  068%=      5-min Rain = 0
KOD1 201119Z 17007KT 26/19 A2988 RMK A01 T02560192  RH  068%=      5-min Rain = 0
KOD1 201120Z 17006KT 26/19 A2988 RMK A01 T02560193  RH  068%=      5-min Rain = 0
KOD1 201121Z 17006KT 26/19 A2988 RMK A01 T02550192  RH  068%=      5-min Rain = 0
KOD1 201122Z 17006KT 26/19 A2988 RMK A01 T02550193  RH  068%=      5-min Rain = 0
KOD1 201123Z 17006KT 25/19 A2988 RMK A01 T02540193  RH  069%=      5-min Rain = 0
KOD1 201124Z 17007KT 25/19 A2988 RMK A01 T02540193  RH  069%=      5-min Rain = 0
KOD1 201125Z 16006KT 26/19 A2988 RMK A01 T02550193  RH  069%=      5-min Rain = 0
KOD1 201126Z 17007KT 26/19 A2988 RMK A01 T02550193  RH  069%=      5-min Rain = 0
KOD1 201127Z 17007KT 26/19 A2988 RMK A01 T02550192  RH  068%=      5-min Rain = 0
KOD1 201128Z 17008KT 26/19 A2988 RMK A01 T02550193  RH  068%=      5-min Rain = 0
KOD1 201129Z 17006KT 26/19 A2989 RMK A01 T02550193  RH  069%=      5-min Rain = 0
KOD1 201130Z 17007KT 25/19 A2989 RMK A01 T02540193  RH  069%=      5-min Rain = 0
KOD1 201131Z 17007KT 25/19 A2989 RMK A01 T02540193  RH  069%=      5-min Rain = 0
KOD1 201132Z 16007KT 25/19 A2989 RMK A01 T02530193  RH  069%=      5-min Rain = 0
KOD1 201133Z 16007KT 25/19 A2989 RMK A01 T02540193  RH  069%=      5-min Rain = 0
KOD1 201134Z 16007KT 25/19 A2989 RMK A01 T02540193  RH  069%=      5-min Rain = 0
KOD1 201135Z 16007KT 25/19 A2988 RMK A01 T02530194  RH  069%=      5-min Rain = 0
KOD1 201136Z 16007KT 25/19 A2989 RMK A01 T02530194  RH  070%=      5-min Rain = 0
KOD1 201137Z 17008KT 25/19 A2989 RMK A01 T02520194  RH  070%=      5-min Rain = 0
KOD1 201138Z 16008KT 25/19 A2989 RMK A01 T02520193  RH  070%=      5-min Rain = 0
KOD1 201139Z 17007KT 25/19 A2989 RMK A01 T02520194  RH  070%=      5-min Rain = 0
KOD1 201140Z 17007KT 25/19 A2989 RMK A01 T02520194  RH  070%=      5-min Rain = 0
KOD1 201141Z 16007KT 25/19 A2989 RMK A01 T02520194  RH  070%=      5-min Rain = 0
KOD1 201142Z 16007KT 25/19 A2989 RMK A01 T02510194  RH  070%=      5-min Rain = 0
KOD1 201143Z 16007KT 25/19 A2989 RMK A01 T02520194  RH  070%=      5-min Rain = 0
KOD1 201144Z 17007KT 25/19 A2989 RMK A01 T02520194  RH  070%=      5-min Rain = 0
KOD1 201145Z 16007KT 25/19 A2989 RMK A01 T02520194  RH  070%=      5-min Rain = 0
KOD1 201146Z 16006KT 25/19 A2989 RMK A01 T02520194  RH  070%=      5-min Rain = 0
KOD1 201147Z 16006KT 25/19 A2989 RMK A01 T02520194  RH  070%=      5-min Rain = 0
KOD1 201148Z 16007KT 25/19 A2989 RMK A01 T02510194  RH  071%=      5-min Rain = 0
KOD1 201149Z 16007KT 25/20 A2989 RMK A01 T02510195  RH  071%=      5-min Rain = 0
KOD1 201150Z 16006KT 25/20 A2989 RMK A01 T02520195  RH  071%=      5-min Rain = 0
KOD1 201151Z 16006KT 25/20 A2989 RMK A01 T02510195  RH  071%=      5-min Rain = 0
KOD1 201152Z 16007KT 25/20 A2989 RMK A01 T02510195  RH  071%=      5-min Rain = 0
KOD1 201153Z 16007KT 25/20 A2989 RMK A01 T02510195  RH  071%=      5-min Rain = 0
KOD1 201154Z 16007KT 25/20 A2989 RMK A01 T02510195  RH  071%=      5-min Rain = 0
KOD1 201155Z 16007KT 25/20 A2989 RMK A01 T02520195  RH  071%=      5-min Rain = 0
KOD1 201156Z 16007KT 25/20 A2989 RMK A01 T02510195  RH  071%=      5-min Rain = 0
KOD1 201157Z 16007KT 25/20 A2989 RMK A01 T02520195  RH  071%=      5-min Rain = 0
KOD1 201158Z 16006KT 25/20 A2989 RMK A01 T02520195  RH  071%=      5-min Rain = 0
KOD1 201159Z 16006KT 25/20 A2989 RMK A01 T02520195  RH  071%=      5-min Rain = 0
KOD1 201200Z 16007KT 25/20 A2989 RMK A01 T02520196  RH  071%=      5-min Rain = 0
KOD1 201201Z 16006KT 25/20 A2989 RMK A01 T02520196  RH  071%=      5-min Rain = 0
KOD1 201202Z 16007KT 25/20 A2989 RMK A01 T02520196  RH  071%=      5-min Rain = 0
KOD1 201203Z 16006KT 25/20 A299 RMK A01 T02520196  RH  071%=      5-min Rain = 0
KOD1 201204Z 16007KT 25/20 A299 RMK A01 T02530197  RH  071%=      5-min Rain = 0
KOD1 201205Z 16007KT 25/20 A299 RMK A01 T02530196  RH  071%=      5-min Rain = 0
KOD1 201206Z 16007KT 25/20 A299 RMK A01 T02540197  RH  071%=      5-min Rain = 0
KOD1 201207Z 16006KT 25/20 A299 RMK A01 T02540197  RH  071%=      5-min Rain = 0
KOD1 201208Z 16006KT 25/20 A299 RMK A01 T02540197  RH  071%=      5-min Rain = 0
KOD1 201209Z 16006KT 25/20 A299 RMK A01 T02540197  RH  071%=      5-min Rain = 0
KOD1 201210Z 16006KT 25/20 A299 RMK A01 T02540197  RH  071%=      5-min Rain = 0
KOD1 201211Z 16006KT 25/20 A299 RMK A01 T02540197  RH  071%=      5-min Rain = 0
KOD1 201212Z 16006KT 25/20 A299 RMK A01 T02540197  RH  071%=      5-min Rain = 0
KOD1 201213Z 16007KT 25/20 A299 RMK A01 T02540198  RH  071%=      5-min Rain = 0
KOD1 201214Z 16007KT 25/20 A299 RMK A01 T02540198  RH  071%=      5-min Rain = 0
KOD1 201215Z 16006KT 25/20 A299 RMK A01 T02540198  RH  071%=      5-min Rain = 0
KOD1 201216Z 16006KT 25/20 A299 RMK A01 T02540198  RH  071%=      5-min Rain = 0
KOD1 201217Z 16006KT 25/20 A299 RMK A01 T02540198  RH  071%=      5-min Rain = 0
KOD1 201218Z 16007KT 26/20 A299 RMK A01 T02550198  RH  071%=      5-min Rain = 0
KOD1 201219Z 15007KT 26/20 A299 RMK A01 T02550198  RH  071%=      5-min Rain = 0
KOD1 201220Z 16007KT 26/20 A299 RMK A01 T02550199  RH  071%=      5-min Rain = 0
KOD1 201221Z 16006KT 26/20 A299 RMK A01 T02560199  RH  071%=      5-min Rain = 0
KOD1 201222Z 16007KT 26/20 A299 RMK A01 T02560199  RH  071%=      5-min Rain = 0
KOD1 201223Z 16008KT 26/20 A299 RMK A01 T02560199  RH  070%=      5-min Rain = 0
KOD1 201224Z 16007KT 26/20 A299 RMK A01 T02570199  RH  070%=      5-min Rain = 0
KOD1 201225Z 16006KT 26/20 A299 RMK A01 T02570199  RH  070%=      5-min Rain = 0
KOD1 201226Z 16006KT 26/20 A299 RMK A01 T02570200  RH  070%=      5-min Rain = 0
KOD1 201227Z 16007KT 26/20 A299 RMK A01 T02580200  RH  070%=      5-min Rain = 0
KOD1 201228Z 16008KT 26/20 A299 RMK A01 T02580200  RH  070%=      5-min Rain = 0
KOD1 201229Z 16007KT 26/20 A299 RMK A01 T02590200  RH  070%=      5-min Rain = 0
KOD1 201230Z 16007KT 26/20 A299 RMK A01 T02590200  RH  070%=      5-min Rain = 0
KOD1 201231Z 17007KT 26/20 A299 RMK A01 T02590200  RH  070%=      5-min Rain = 0
KOD1 201232Z 16008KT 26/20 A299 RMK A01 T02590200  RH  070%=      5-min Rain = 0
KOD1 201233Z 16007KT 26/20 A299 RMK A01 T02600201  RH  070%=      5-min Rain = 0
KOD1 201234Z 16006KT 26/20 A299 RMK A01 T02600201  RH  070%=      5-min Rain = 0
KOD1 201235Z 16006KT 26/20 A299 RMK A01 T02600201  RH  070%=      5-min Rain = 0
KOD1 201236Z 16006KT 26/20 A299 RMK A01 T02610202  RH  070%=      5-min Rain = 0
KOD1 201237Z 17006KT 26/20 A299 RMK A01 T02610202  RH  070%=      5-min Rain = 0
KOD1 201238Z 16006KT 26/20 A299 RMK A01 T02610202  RH  070%=      5-min Rain = 0
KOD1 201239Z 16006KT 26/20 A299 RMK A01 T02610202  RH  070%=      5-min Rain = 0
KOD1 201240Z 16006KT 26/20 A299 RMK A01 T02610202  RH  070%=      5-min Rain = 0
KOD1 201241Z 16006KT 26/20 A299 RMK A01 T02610202  RH  070%=      5-min Rain = 0
KOD1 201242Z 16007KT 26/20 A299 RMK A01 T02620203  RH  070%=      5-min Rain = 0
KOD1 201243Z 17006KT 26/20 A299 RMK A01 T02620203  RH  070%=      5-min Rain = 0
KOD1 201244Z 16006KT 26/20 A299 RMK A01 T02630204  RH  070%=      5-min Rain = 0
KOD1 201245Z 17006KT 26/20 A299 RMK A01 T02640204  RH  070%=      5-min Rain = 0
KOD1 201246Z 16007KT 26/20 A299 RMK A01 T02640204  RH  070%=      5-min Rain = 0
KOD1 201247Z 16007KT 26/20 A299 RMK A01 T02640203  RH  069%=      5-min Rain = 0
KOD1 201248Z 16006KT 27/21 A299 RMK A01 T02650205  RH  070%=      5-min Rain = 0
KOD1 201249Z 17007KT 27/21 A299 RMK A01 T02650205  RH  069%=      5-min Rain = 0
KOD1 201250Z 16007KT 27/21 A299 RMK A01 T02650205  RH  069%=      5-min Rain = 0
KOD1 201251Z 16008KT 27/20 A299 RMK A01 T02650204  RH  069%=      5-min Rain = 0
KOD1 201252Z 15007KT 27/21 A299 RMK A01 T02660205  RH  069%=      5-min Rain = 0
KOD1 201253Z 16007KT 27/21 A299 RMK A01 T02660205  RH  069%=      5-min Rain = 0
KOD1 201254Z 16007KT 27/21 A299 RMK A01 T02670205  RH  069%=      5-min Rain = 0
KOD1 201255Z 16008KT 27/21 A299 RMK A01 T02670205  RH  069%=      5-min Rain = 0
KOD1 201256Z 16008KT 27/21 A299 RMK A01 T02670205  RH  069%=      5-min Rain = 0
KOD1 201257Z 16007KT 27/21 A299 RMK A01 T02670205  RH  069%=      5-min Rain = 0
KOD1 201258Z 16008KT 27/21 A299 RMK A01 T02670206  RH  069%=      5-min Rain = 0
KOD1 201259Z 16008KT 27/21 A2991 RMK A01 T02680206  RH  069%=      5-min Rain = 0
KOD1 201300Z 17008KT 27/21 A2991 RMK A01 T02690206  RH  069%=      5-min Rain = 0
KOD1 201301Z 17008KT 27/21 A2991 RMK A01 T02690206  RH  069%=      5-min Rain = 0
KOD1 201302Z 16009KT 27/21 A2991 RMK A01 T02690206  RH  068%=      5-min Rain = 0
KOD1 201303Z 16008KT 27/21 A2991 RMK A01 T02690206  RH  068%=      5-min Rain = 0
KOD1 201304Z 16009KT 27/21 A2991 RMK A01 T02700206  RH  068%=      5-min Rain = 0
KOD1 201305Z 17009KT 27/21 A2991 RMK A01 T02700206  RH  068%=      5-min Rain = 0
KOD1 201306Z 16008KT 27/21 A2991 RMK A01 T02700206  RH  068%=      5-min Rain = 0
KOD1 201307Z 16008KT 27/21 A2991 RMK A01 T02700207  RH  068%=      5-min Rain = 0
KOD1 201308Z 16007KT 27/21 A2991 RMK A01 T02710206  RH  068%=      5-min Rain = 0
KOD1 201309Z 17009KT 27/21 A2991 RMK A01 T02710207  RH  068%=      5-min Rain = 0
KOD1 201310Z 17008KT 27/21 A2991 RMK A01 T02720208  RH  068%=      5-min Rain = 0
KOD1 201311Z 17009KT 27/21 A2991 RMK A01 T02720207  RH  068%=      5-min Rain = 0
KOD1 201312Z 17007KT 27/21 A2991 RMK A01 T02710207  RH  068%=      5-min Rain = 0
KOD1 201313Z 17006KT 27/21 A2991 RMK A01 T02720208  RH  068%=      5-min Rain = 0
KOD1 201314Z 17007KT 27/21 A2991 RMK A01 T02740209  RH  068%=      5-min Rain = 0
KOD1 201315Z 18006KT 27/21 A2991 RMK A01 T02740209  RH  068%=      5-min Rain = 0
KOD1 201316Z 16007KT 27/21 A2991 RMK A01 T02740209  RH  067%=      5-min Rain = 0
KOD1 201317Z 17007KT 27/21 A2991 RMK A01 T02740208  RH  067%=      5-min Rain = 0
KOD1 201318Z 16007KT 27/21 A2991 RMK A01 T02740209  RH  067%=      5-min Rain = 0
KOD1 201319Z 17011KT 28/21 A2991 RMK A01 T02750208  RH  067%=      5-min Rain = 0
KOD1 201320Z 16008KT 27/21 A2991 RMK A01 T02740208  RH  067%=      5-min Rain = 0
KOD1 201321Z 17007KT 27/21 A2991 RMK A01 T02740209  RH  068%=      5-min Rain = 0
KOD1 201322Z 16010KT 28/21 A2991 RMK A01 T02750209  RH  067%=      5-min Rain = 0
KOD1 201323Z 16010KT 28/21 A2991 RMK A01 T02750208  RH  067%=      5-min Rain = 0
KOD1 201324Z 16009KT 28/21 A2991 RMK A01 T02750209  RH  067%=      5-min Rain = 0
KOD1 201325Z 16009KT 28/21 A2991 RMK A01 T02750209  RH  067%=      5-min Rain = 0
KOD1 201326Z 16010KT 27/21 A2991 RMK A01 T02740208  RH  067%=      5-min Rain = 0
KOD1 201327Z 16010KT 27/21 A2991 RMK A01 T02740209  RH  068%=      5-min Rain = 0
KOD1 201328Z 17008KT 28/21 A2991 RMK A01 T02750210  RH  068%=      5-min Rain = 0
KOD1 201329Z 17009KT 28/21 A2991 RMK A01 T02760209  RH  067%=      5-min Rain = 0
KOD1 201330Z 16009KT 28/21 A2991 RMK A01 T02760210  RH  067%=      5-min Rain = 0
KOD1 201331Z 17008KT 28/21 A2991 RMK A01 T02770211  RH  067%=      5-min Rain = 0
KOD1 201332Z 17009KT 28/21 A2991 RMK A01 T02770210  RH  067%=      5-min Rain = 0
KOD1 201333Z 17010KT 28/21 A2991 RMK A01 T02770211  RH  067%=      5-min Rain = 0
KOD1 201334Z 17009KT 28/21 A2991 RMK A01 T02770210  RH  067%=      5-min Rain = 0
KOD1 201335Z 16008KT 28/21 A2991 RMK A01 T02780212  RH  067%=      5-min Rain = 0
KOD1 201336Z 16010KT 28/21 A2991 RMK A01 T02790211  RH  066%=      5-min Rain = 0
KOD1 201337Z 17008KT 28/21 A2991 RMK A01 T02790211  RH  067%=      5-min Rain = 0
KOD1 201338Z 17009KT 28/21 A2991 RMK A01 T02790211  RH  066%=      5-min Rain = 0
KOD1 201339Z 19009KT 28/21 A2991 RMK A01 T02790212  RH  067%=      5-min Rain = 0
KOD1 201340Z 18009KT 28/21 A2991 RMK A01 T02800211  RH  066%=      5-min Rain = 0
KOD1 201341Z 17011KT 28/21 A2991 RMK A01 T02800211  RH  066%=      5-min Rain = 0
KOD1 201342Z 19008KT 28/21 A2991 RMK A01 T02800212  RH  066%=      5-min Rain = 0
KOD1 201343Z 17007KT 28/21 A2991 RMK A01 T02810213  RH  066%=      5-min Rain = 0
KOD1 201344Z 17008KT 28/21 A2991 RMK A01 T02830213  RH  066%=      5-min Rain = 0
KOD1 201345Z 18012KT 28/21 A2991 RMK A01 T02820211  RH  065%=      5-min Rain = 0
KOD1 201346Z 18009KT 28/21 A2991 RMK A01 T02810212  RH  066%=      5-min Rain = 0
KOD1 201347Z 17010KT 28/21 A2991 RMK A01 T02810212  RH  066%=      5-min Rain = 0
KOD1 201348Z 17010KT 28/21 A2991 RMK A01 T02810211  RH  066%=      5-min Rain = 0
KOD1 201349Z 18011KT 28/21 A2991 RMK A01 T02810212  RH  066%=      5-min Rain = 0
KOD1 201350Z 18011KT 28/21 A2991 RMK A01 T02810212  RH  066%=      5-min Rain = 0
KOD1 201351Z 18013KT 28/21 A2991 RMK A01 T02810211  RH  066%=      5-min Rain = 0
KOD1 201352Z 19010KT 28/21 A2991 RMK A01 T02810212  RH  066%=      5-min Rain = 0
KOD1 201353Z 18009KT 28/21 A2991 RMK A01 T02820213  RH  066%=      5-min Rain = 0
KOD1 201354Z 20010KT 28/21 A2991 RMK A01 T02830212  RH  066%=      5-min Rain = 0
KOD1 201355Z 19009KT 28/21 A2991 RMK A01 T02830214  RH  066%=      5-min Rain = 0
KOD1 201356Z 18010KT 28/21 A2991 RMK A01 T02840213  RH  065%=      5-min Rain = 0
KOD1 201357Z 17010KT 29/21 A2991 RMK A01 T02850214  RH  066%=      5-min Rain = 0
KOD1 201358Z 18012KT 29/21 A2991 RMK A01 T02850213  RH  065%=      5-min Rain = 0
KOD1 201359Z 17012KT 28/21 A2991 RMK A01 T02840212  RH  065%=      5-min Rain = 0
KOD1 201400Z 18011KT 28/21 A2991 RMK A01 T02840213  RH  065%=      5-min Rain = 0
KOD1 201401Z 18011KT 29/21 A2991 RMK A01 T02850213  RH  065%=      5-min Rain = 0
KOD1 201402Z 18009KT 29/21 A2991 RMK A01 T02850214  RH  065%=      5-min Rain = 0
KOD1 201403Z 17010KT 29/21 A2991 RMK A01 T02870214  RH  065%=      5-min Rain = 0
KOD1 201404Z 18010KT 29/21 A2991 RMK A01 T02870214  RH  065%=      5-min Rain = 0
KOD1 201405Z 17009KT 29/21 A2991 RMK A01 T02870214  RH  064%=      5-min Rain = 0
KOD1 201406Z 18010KT 29/21 A2991 RMK A01 T02870214  RH  064%=      5-min Rain = 0
KOD1 201407Z 18011KT 29/21 A2991 RMK A01 T02880214  RH  064%=      5-min Rain = 0
KOD1 201408Z 18011KT 29/21 A2991 RMK A01 T02880214  RH  064%=      5-min Rain = 0
KOD1 201409Z 19010KT 29/21 A2991 RMK A01 T02870213  RH  064%=      5-min Rain = 0
KOD1 201410Z 16010KT 29/22 A2991 RMK A01 T02880215  RH  065%=      5-min Rain = 0
KOD1 201411Z 18012KT 29/21 A2991 RMK A01 T02900213  RH  063%=      5-min Rain = 0
KOD1 201412Z 19009KT 29/22 A2991 RMK A01 T02900215  RH  064%=      5-min Rain = 0
KOD1 201413Z 19008KT 29/22 A2991 RMK A01 T02920216  RH  063%=      5-min Rain = 0
KOD1 201414Z 19011KT 29/21 A2991 RMK A01 T02930214  RH  063%=      5-min Rain = 0
KOD1 201415Z 18009KT 29/22 A2991 RMK A01 T02940215  RH  062%=      5-min Rain = 0
KOD1 201416Z 18009KT 30/22 A2991 RMK A01 T02960217  RH  062%=      5-min Rain = 0
KOD1 201417Z 18009KT 30/22 A2991 RMK A01 T02970216  RH  062%=      5-min Rain = 0
KOD1 201418Z 18013G18KT 30/22 A2991 RMK A01 T02980215  RH  061%=      5-min Rain = 0
KOD1 201419Z 19016KT 30/21 A2991 RMK A01 T02970212  RH  060%=      5-min Rain = 0
KOD1 201420Z 20015KT 30/21 A2991 RMK A01 T02950210  RH  060%=      5-min Rain = 0
KOD1 201421Z 19015KT 30/21 A2991 RMK A01 T02950210  RH  060%=      5-min Rain = 0
KOD1 201422Z 19015KT 30/21 A2991 RMK A01 T02950210  RH  060%=      5-min Rain = 0
KOD1 201423Z 18015KT 30/21 A2991 RMK A01 T02950210  RH  060%=      5-min Rain = 0
KOD1 201424Z 19015KT 30/21 A2991 RMK A01 T02960210  RH  060%=      5-min Rain = 0
KOD1 201425Z 20016KT 30/21 A2991 RMK A01 T02960209  RH  060%=      5-min Rain = 0
KOD1 201426Z 19012G17KT 30/21 A2991 RMK A01 T02950210  RH  060%=      5-min Rain = 0
KOD1 201427Z 18013G18KT 30/21 A2991 RMK A01 T02970212  RH  060%=      5-min Rain = 0
KOD1 201428Z 19016KT 30/21 A2991 RMK A01 T02980211  RH  060%=      5-min Rain = 0
KOD1 201429Z 20015KT 30/21 A2991 RMK A01 T02980210  RH  059%=      5-min Rain = 0
KOD1 201430Z 19012KT 30/21 A2991 RMK A01 T02970211  RH  060%=      5-min Rain = 0
KOD1 201431Z 19012G17KT 30/21 A2991 RMK A01 T02990212  RH  060%=      5-min Rain = 0
KOD1 201432Z 19014G21KT 30/21 A2991 RMK A01 T03000212  RH  059%=      5-min Rain = 0
KOD1 201433Z 19015G21KT 30/21 A2991 RMK A01 T02990211  RH  059%=      5-min Rain = 0
KOD1 201434Z 19012KT 30/21 A2991 RMK A01 T03000211  RH  059%=      5-min Rain = 0
KOD1 201435Z 19014KT 30/21 A2991 RMK A01 T03010211  RH  058%=      5-min Rain = 0
KOD1 201436Z 20015KT 30/21 A2991 RMK A01 T03000211  RH  059%=      5-min Rain = 0
KOD1 201437Z 18015KT 30/21 A2991 RMK A01 T03000210  RH  058%=      5-min Rain = 0
KOD1 201438Z 20013KT 30/21 A2991 RMK A01 T03000209  RH  058%=      5-min Rain = 0
KOD1 201439Z 20013KT 30/21 A2991 RMK A01 T02990210  RH  059%=      5-min Rain = 0
KOD1 201440Z 19014KT 30/21 A2991 RMK A01 T03000210  RH  059%=      5-min Rain = 0
KOD1 201441Z 19014KT 30/21 A2991 RMK A01 T03020211  RH  058%=      5-min Rain = 0
KOD1 201442Z 20015KT 30/21 A2991 RMK A01 T03020210  RH  058%=      5-min Rain = 0
KOD1 201443Z 20011KT 30/21 A2991 RMK A01 T03010210  RH  058%=      5-min Rain = 0
KOD1 201444Z 20010G16KT 30/21 A2991 RMK A01 T03030214  RH  059%=      5-min Rain = 0
KOD1 201445Z 20015KT 31/21 A2991 RMK A01 T03050212  RH  058%=      5-min Rain = 0
KOD1 201446Z 19011KT 31/21 A2991 RMK A01 T03050210  RH  057%=      5-min Rain = 0
KOD1 201447Z 20013KT 31/21 A2991 RMK A01 T03050210  RH  057%=      5-min Rain = 0
KOD1 201448Z 19014KT 30/21 A2991 RMK A01 T03040209  RH  057%=      5-min Rain = 0
KOD1 201449Z 18012KT 30/21 A2991 RMK A01 T03040210  RH  057%=      5-min Rain = 0
KOD1 201450Z 19015KT 31/21 A2991 RMK A01 T03060209  RH  056%=      5-min Rain = 0
KOD1 201451Z 20017KT 31/21 A2991 RMK A01 T03050208  RH  056%=      5-min Rain = 0
KOD1 201452Z 19013KT 30/21 A2991 RMK A01 T03040209  RH  057%=      5-min Rain = 0
KOD1 201453Z 18013KT 31/21 A2991 RMK A01 T03050210  RH  057%=      5-min Rain = 0
KOD1 201454Z 20011KT 31/21 A2991 RMK A01 T03060211  RH  057%=      5-min Rain = 0
KOD1 201455Z 19015KT 31/21 A2991 RMK A01 T03070210  RH  056%=      5-min Rain = 0
KOD1 201456Z 19015KT 31/21 A2991 RMK A01 T03060208  RH  056%=      5-min Rain = 0
KOD1 201457Z 19013G18KT 31/21 A2991 RMK A01 T03060209  RH  056%=      5-min Rain = 0
KOD1 201458Z 20017KT 31/21 A2991 RMK A01 T03060208  RH  056%=      5-min Rain = 0
KOD1 201459Z 19014KT 31/21 A2991 RMK A01 T03050208  RH  056%=      5-min Rain = 0
KOD1 201500Z 19016G21KT 31/21 A2991 RMK A01 T03060208  RH  056%=      5-min Rain = 0
KOD1 201501Z 18016KT 31/21 A2991 RMK A01 T03050207  RH  056%=      5-min Rain = 0
KOD1 201502Z 19017G22KT 31/21 A2991 RMK A01 T03050207  RH  056%=      5-min Rain = 0
KOD1 201503Z 19015KT 31/21 A2991 RMK A01 T03050207  RH  056%=      5-min Rain = 0
KOD1 201504Z 18017KT 31/21 A2991 RMK A01 T03060208  RH  056%=      5-min Rain = 0
KOD1 201505Z 19016KT 31/21 A299 RMK A01 T03060207  RH  056%=      5-min Rain = 0
KOD1 201506Z 19016KT 31/21 A299 RMK A01 T03060208  RH  056%=      5-min Rain = 0
KOD1 201507Z 19014KT 31/21 A299 RMK A01 T03070208  RH  056%=      5-min Rain = 0
KOD1 201508Z 19015G20KT 31/21 A299 RMK A01 T03080209  RH  056%=      5-min Rain = 0
KOD1 201509Z 19015KT 31/21 A299 RMK A01 T03080208  RH  055%=      5-min Rain = 0
KOD1 201510Z 20014KT 31/21 A299 RMK A01 T03080209  RH  056%=      5-min Rain = 0
KOD1 201511Z 19014KT 31/21 A299 RMK A01 T03080209  RH  056%=      5-min Rain = 0
KOD1 201512Z 18016KT 31/21 A299 RMK A01 T03080209  RH  056%=      5-min Rain = 0
KOD1 201513Z 18015KT 31/21 A299 RMK A01 T03080208  RH  055%=      5-min Rain = 0
KOD1 201514Z 18014KT 31/21 A299 RMK A01 T03090209  RH  055%=      5-min Rain = 0
KOD1 201515Z 18014KT 31/21 A299 RMK A01 T03110210  RH  055%=      5-min Rain = 0
KOD1 201516Z 18013G18KT 31/21 A299 RMK A01 T03120210  RH  055%=      5-min Rain = 0
KOD1 201517Z 18013G18KT 31/21 A299 RMK A01 T03130210  RH  054%=      5-min Rain = 0
KOD1 201518Z 19013KT 32/21 A299 RMK A01 T03150210  RH  054%=      5-min Rain = 0
KOD1 201519Z 19015KT 31/21 A299 RMK A01 T03140207  RH  053%=      5-min Rain = 0
KOD1 201520Z 20015KT 31/21 A299 RMK A01 T03130209  RH  054%=      5-min Rain = 0
KOD1 201521Z 20014KT 31/21 A299 RMK A01 T03130209  RH  054%=      5-min Rain = 0
KOD1 201522Z 20011G16KT 31/21 A299 RMK A01 T03130209  RH  054%=      5-min Rain = 0
KOD1 201523Z 18013KT 31/21 A299 RMK A01 T03140209  RH  054%=      5-min Rain = 0
KOD1 201524Z 18015KT 32/21 A299 RMK A01 T03160209  RH  053%=      5-min Rain = 0
KOD1 201525Z 20015G20KT 32/21 A299 RMK A01 T03160208  RH  053%=      5-min Rain = 0
KOD1 201526Z 19016KT 32/21 A299 RMK A01 T03150206  RH  052%=      5-min Rain = 0
KOD1 201527Z 19015KT 31/21 A299 RMK A01 T03130207  RH  053%=      5-min Rain = 0
KOD1 201528Z 19013KT 31/21 A299 RMK A01 T03140207  RH  053%=      5-min Rain = 0
KOD1 201529Z 20018KT 32/21 A299 RMK A01 T03150207  RH  053%=      5-min Rain = 0
KOD1 201530Z 19017KT 32/21 A299 RMK A01 T03150206  RH  052%=      5-min Rain = 0
KOD1 201531Z 20016KT 31/21 A299 RMK A01 T03140206  RH  053%=      5-min Rain = 0
KOD1 201532Z 19015KT 31/21 A299 RMK A01 T03140205  RH  053%=      5-min Rain = 0
KOD1 201533Z 19014G20KT 31/21 A299 RMK A01 T03130206  RH  053%=      5-min Rain = 0
KOD1 201534Z 20017KT 31/21 A2989 RMK A01 T03140205  RH  052%=      5-min Rain = 0
KOD1 201535Z 20015KT 32/21 A2989 RMK A01 T03150207  RH  053%=      5-min Rain = 0
KOD1 201536Z 19014KT 32/21 A2989 RMK A01 T03170208  RH  052%=      5-min Rain = 0
KOD1 201537Z 19014KT 32/21 A299 RMK A01 T03170206  RH  052%=      5-min Rain = 0
KOD1 201538Z 19012KT 32/21 A2989 RMK A01 T03170208  RH  052%=      5-min Rain = 0
KOD1 201539Z 20013KT 32/21 A2989 RMK A01 T03190207  RH  052%=      5-min Rain = 0
KOD1 201540Z 21017G23KT 32/21 A2989 RMK A01 T03190206  RH  051%=      5-min Rain = 0
KOD1 201541Z 18015KT 32/21 A2989 RMK A01 T03200208  RH  052%=      5-min Rain = 0
KOD1 201542Z 18017KT 32/21 A2989 RMK A01 T03200206  RH  051%=      5-min Rain = 0
KOD1 201543Z 18015KT 32/21 A2989 RMK A01 T03180205  RH  051%=      5-min Rain = 0
KOD1 201544Z 17016KT 32/21 A2989 RMK A01 T03180205  RH  051%=      5-min Rain = 0
KOD1 201545Z 17017KT 32/21 A2989 RMK A01 T03190207  RH  051%=      5-min Rain = 0
KOD1 201546Z 18017KT 32/21 A2989 RMK A01 T03190205  RH  051%=      5-min Rain = 0
KOD1 201547Z 18016KT 32/21 A2989 RMK A01 T03190206  RH  051%=      5-min Rain = 0
KOD1 201548Z 19015KT 32/21 A2989 RMK A01 T03190206  RH  051%=      5-min Rain = 0
KOD1 201549Z 18014KT 32/21 A2989 RMK A01 T03210208  RH  051%=      5-min Rain = 0
KOD1 201550Z 18012KT 32/21 A2989 RMK A01 T03230209  RH  051%=      5-min Rain = 0
KOD1 201551Z 18015KT 32/21 A2989 RMK A01 T03240207  RH  050%=      5-min Rain = 0
KOD1 201552Z 18014KT 32/21 A2989 RMK A01 T03220207  RH  051%=      5-min Rain = 0
KOD1 201553Z 17014KT 32/21 A2989 RMK A01 T03220206  RH  050%=      5-min Rain = 0
KOD1 201554Z 18014KT 32/21 A2989 RMK A01 T03240208  RH  051%=      5-min Rain = 0
KOD1 201555Z 18016KT 32/21 A2989 RMK A01 T03240206  RH  050%=      5-min Rain = 0
KOD1 201556Z 18013KT 32/21 A2989 RMK A01 T03230205  RH  050%=      5-min Rain = 0
KOD1 201557Z 18015KT 32/21 A2989 RMK A01 T03230205  RH  050%=      5-min Rain = 0
KOD1 201558Z 18013KT 32/21 A2989 RMK A01 T03230206  RH  050%=      5-min Rain = 0
KOD1 201559Z 18017KT 33/21 A2989 RMK A01 T03250206  RH  049%=      5-min Rain = 0
KOD1 201600Z 18017KT 33/21 A2989 RMK A01 T03250206  RH  049%=      5-min Rain = 0
KOD1 201601Z 18016KT 33/21 A2989 RMK A01 T03250205  RH  049%=      5-min Rain = 0
KOD1 201602Z 20014KT 33/21 A2989 RMK A01 T03250205  RH  049%=      5-min Rain = 0
KOD1 201603Z 19015KT 32/20 A2989 RMK A01 T03240203  RH  049%=      5-min Rain = 0
KOD1 201604Z 18012KT 32/20 A2989 RMK A01 T03240204  RH  049%=      5-min Rain = 0
KOD1 201605Z 20014G19KT 33/21 A2989 RMK A01 T03250205  RH  049%=      5-min Rain = 0
KOD1 201606Z 20015G20KT 33/20 A2989 RMK A01 T03250204  RH  049%=      5-min Rain = 0
KOD1 201607Z 18012KT 33/21 A2989 RMK A01 T03270207  RH  049%=      5-min Rain = 0
KOD1 201608Z 20015KT 33/21 A2989 RMK A01 T03300205  RH  048%=      5-min Rain = 0
KOD1 201609Z 19014KT 33/21 A2989 RMK A01 T03280205  RH  048%=      5-min Rain = 0
KOD1 201610Z 19012KT 33/21 A2989 RMK A01 T03290205  RH  048%=      5-min Rain = 0
KOD1 201611Z 18012G17KT 33/21 A2989 RMK A01 T03290206  RH  048%=      5-min Rain = 0
KOD1 201612Z 18010KT 33/21 A2989 RMK A01 T03310209  RH  049%=      5-min Rain = 0
KOD1 201613Z 17013G19KT 33/21 A2989 RMK A01 T03330209  RH  048%=      5-min Rain = 0
KOD1 201614Z 18015KT 33/21 A2989 RMK A01 T03320207  RH  048%=      5-min Rain = 0
KOD1 201615Z 17016G23KT 33/21 A2989 RMK A01 T03310207  RH  048%=      5-min Rain = 0
KOD1 201616Z 17015KT 33/21 A2989 RMK A01 T03310208  RH  048%=      5-min Rain = 0
KOD1 201617Z 18013KT 33/21 A2989 RMK A01 T03290207  RH  049%=      5-min Rain = 0
KOD1 201618Z 18015KT 33/21 A2989 RMK A01 T03290207  RH  049%=      5-min Rain = 0
KOD1 201619Z 19013KT 33/21 A2989 RMK A01 T03300207  RH  049%=      5-min Rain = 0
KOD1 201620Z 18013KT 33/21 A2989 RMK A01 T03300206  RH  048%=      5-min Rain = 0
KOD1 201621Z 17013KT 33/21 A2989 RMK A01 T03300208  RH  049%=      5-min Rain = 0
KOD1 201622Z 18014KT 33/21 A2989 RMK A01 T03300206  RH  048%=      5-min Rain = 0
KOD1 201623Z 18014KT 33/21 A2989 RMK A01 T03300207  RH  048%=      5-min Rain = 0
KOD1 201624Z 18015KT 33/21 A2989 RMK A01 T03310208  RH  048%=      5-min Rain = 0
KOD1 201625Z 18016KT 33/21 A2989 RMK A01 T03320206  RH  048%=      5-min Rain = 0
KOD1 201626Z 19014G19KT 33/21 A2989 RMK A01 T03310206  RH  048%=      5-min Rain = 0
KOD1 201627Z 19014KT 33/21 A2989 RMK A01 T03320206  RH  048%=      5-min Rain = 0
KOD1 201628Z 19015KT 33/21 A2989 RMK A01 T03320205  RH  047%=      5-min Rain = 0
KOD1 201629Z 18018KT 33/20 A2989 RMK A01 T03320202  RH  047%=      5-min Rain = 0
KOD1 201630Z 17017KT 33/20 A2989 RMK A01 T03300202  RH  047%=      5-min Rain = 0
KOD1 201631Z 19015KT 33/20 A2989 RMK A01 T03310203  RH  047%=      5-min Rain = 0
KOD1 201632Z 18013KT 33/20 A2989 RMK A01 T03300202  RH  047%=      5-min Rain = 0
KOD1 201633Z 17012KT 33/21 A2989 RMK A01 T03300205  RH  048%=      5-min Rain = 0
KOD1 201634Z 17015KT 33/21 A2989 RMK A01 T03330205  RH  047%=      5-min Rain = 0
KOD1 201635Z 17015G20KT 33/20 A2989 RMK A01 T03340203  RH  046%=      5-min Rain = 0
KOD1 201636Z 18015KT 33/20 A2989 RMK A01 T03340200  RH  045%=      5-min Rain = 0
KOD1 201637Z 18014KT 34/20 A2989 RMK A01 T03360203  RH  046%=      5-min Rain = 0
KOD1 201638Z 18014KT 34/21 A2989 RMK A01 T03360206  RH  047%=      5-min Rain = 0
KOD1 201639Z 19013KT 34/20 A2989 RMK A01 T03350203  RH  046%=      5-min Rain = 0
KOD1 201640Z 19013KT 33/20 A2989 RMK A01 T03340203  RH  046%=      5-min Rain = 0
KOD1 201641Z 17016KT 33/20 A2989 RMK A01 T03340204  RH  047%=      5-min Rain = 0
KOD1 201642Z 17013KT 33/20 A2989 RMK A01 T03340203  RH  046%=      5-min Rain = 0
KOD1 201643Z 18011KT 34/21 A2989 RMK A01 T03360206  RH  046%=      5-min Rain = 0
KOD1 201644Z 18011KT 34/21 A2989 RMK A01 T03370205  RH  046%=      5-min Rain = 0
KOD1 201645Z 17012KT 34/21 A2989 RMK A01 T03400206  RH  046%=      5-min Rain = 0
KOD1 201646Z 18011KT 34/21 A2989 RMK A01 T03410205  RH  045%=      5-min Rain = 0
KOD1 201647Z 18015KT 34/20 A2989 RMK A01 T03400204  RH  045%=      5-min Rain = 0
KOD1 201648Z 19015KT 34/20 A2989 RMK A01 T03380203  RH  045%=      5-min Rain = 0
KOD1 201649Z 19013KT 34/20 A2989 RMK A01 T03370202  RH  045%=      5-min Rain = 0
KOD1 201650Z 19012KT 34/20 A2989 RMK A01 T03350203  RH  046%=      5-min Rain = 0
KOD1 201651Z 17016KT 34/20 A2989 RMK A01 T03380204  RH  046%=      5-min Rain = 0
KOD1 201652Z 17017KT 34/20 A2989 RMK A01 T03370200  RH  045%=      5-min Rain = 0
KOD1 201653Z 17017KT 34/20 A2989 RMK A01 T03380203  RH  045%=      5-min Rain = 0
KOD1 201654Z 17015KT 34/20 A2989 RMK A01 T03370203  RH  045%=      5-min Rain = 0
KOD1 201655Z 18014KT 34/20 A2989 RMK A01 T03380203  RH  045%=      5-min Rain = 0
KOD1 201656Z 18013KT 34/20 A2989 RMK A01 T03380203  RH  045%=      5-min Rain = 0
KOD1 201657Z 16014KT 34/20 A2989 RMK A01 T03380203  RH  045%=      5-min Rain = 0
KOD1 201658Z 16017G22KT 34/20 A2989 RMK A01 T03380202  RH  045%=      5-min Rain = 0
KOD1 201659Z 18017KT 34/20 A2989 RMK A01 T03400203  RH  045%=      5-min Rain = 0
KOD1 201700Z 18019KT 34/20 A2989 RMK A01 T03390201  RH  044%=      5-min Rain = 0
KOD1 201701Z 18017KT 34/20 A2989 RMK A01 T03370200  RH  044%=      5-min Rain = 0
KOD1 201702Z 18014G19KT 34/20 A2989 RMK A01 T03360200  RH  045%=      5-min Rain = 0
KOD1 201703Z 16015G22KT 34/20 A2989 RMK A01 T03370201  RH  045%=      5-min Rain = 0
KOD1 201704Z 17017KT 34/20 A2989 RMK A01 T03390201  RH  044%=      5-min Rain = 0
KOD1 201705Z 17016KT 34/20 A2989 RMK A01 T03400200  RH  044%=      5-min Rain = 0
KOD1 201706Z 16015G20KT 34/20 A2989 RMK A01 T03390201  RH  044%=      5-min Rain = 0
KOD1 201707Z 17016KT 34/20 A2989 RMK A01 T03410202  RH  044%=      5-min Rain = 0
KOD1 201708Z 18014KT 34/20 A2989 RMK A01 T03410202  RH  044%=      5-min Rain = 0
KOD1 201709Z 16014KT 34/20 A2989 RMK A01 T03410202  RH  044%=      5-min Rain = 0
KOD1 201710Z 16014KT 34/20 A2989 RMK A01 T03410204  RH  045%=      5-min Rain = 0
KOD1 201711Z 17012KT 34/20 A2989 RMK A01 T03430203  RH  044%=      5-min Rain = 0
KOD1 201712Z 19011KT 35/20 A2989 RMK A01 T03450204  RH  044%=      5-min Rain = 0
KOD1 201713Z 19012KT 35/20 A2989 RMK A01 T03450200  RH  043%=      5-min Rain = 0
KOD1 201714Z 19011KT 35/20 A2989 RMK A01 T03460200  RH  042%=      5-min Rain = 0
KOD1 201715Z 18012KT 35/20 A2989 RMK A01 T03480203  RH  043%=      5-min Rain = 0
KOD1 201716Z 19012KT 35/20 A2989 RMK A01 T03500199  RH  041%=      5-min Rain = 0
KOD1 201717Z 18010KT 35/20 A2989 RMK A01 T03480200  RH  042%=      5-min Rain = 0
KOD1 201718Z 16015G20KT 35/20 A2989 RMK A01 T03470203  RH  043%=      5-min Rain = 0
KOD1 201719Z 16017KT 35/20 A2989 RMK A01 T03460202  RH  043%=      5-min Rain = 0
KOD1 201720Z 16017KT 35/20 A2989 RMK A01 T03450202  RH  043%=      5-min Rain = 0
KOD1 201721Z 16016KT 35/20 A2989 RMK A01 T03460202  RH  043%=      5-min Rain = 0
KOD1 201722Z 16017KT 35/20 A2989 RMK A01 T03450201  RH  043%=      5-min Rain = 0
KOD1 201723Z 16015KT 34/20 A2989 RMK A01 T03440201  RH  043%=      5-min Rain = 0
KOD1 201724Z 17016KT 35/20 A2989 RMK A01 T03450200  RH  043%=      5-min Rain = 0
KOD1 201725Z 18011KT 34/20 A2989 RMK A01 T03440200  RH  043%=      5-min Rain = 0
KOD1 201726Z 18014G19KT 35/21 A2989 RMK A01 T03460205  RH  044%=      5-min Rain = 0
KOD1 201727Z 17015KT 35/20 A2989 RMK A01 T03470204  RH  043%=      5-min Rain = 0
KOD1 201728Z 17016KT 35/20 A2989 RMK A01 T03460200  RH  042%=      5-min Rain = 0
KOD1 201729Z 18013KT 35/20 A2989 RMK A01 T03450200  RH  043%=      5-min Rain = 0
KOD1 201730Z 17013KT 35/20 A2989 RMK A01 T03460203  RH  043%=      5-min Rain = 0
KOD1 201731Z 16013KT 35/20 A2989 RMK A01 T03480202  RH  042%=      5-min Rain = 0
KOD1 201732Z 17013KT 35/20 A2989 RMK A01 T03480201  RH  042%=      5-min Rain = 0
KOD1 201733Z 17013KT 35/20 A2989 RMK A01 T03470200  RH  042%=      5-min Rain = 0
KOD1 201734Z 16015G20KT 35/20 A2989 RMK A01 T03480201  RH  042%=      5-min Rain = 0
KOD1 201735Z 16011KT 35/20 A2989 RMK A01 T03480201  RH  042%=      5-min Rain = 0
KOD1 201736Z 15014KT 35/20 A2989 RMK A01 T03500201  RH  042%=      5-min Rain = 0
KOD1 201737Z 17011KT 35/20 A2989 RMK A01 T03500203  RH  042%=      5-min Rain = 0
KOD1 201738Z 18013G19KT 35/20 A2989 RMK A01 T03530204  RH  042%=      5-min Rain = 0
KOD1 201739Z 18013G19KT 35/20 A2989 RMK A01 T03530197  RH  040%=      5-min Rain = 0
KOD1 201740Z 17013KT 35/20 A2989 RMK A01 T03510200  RH  041%=      5-min Rain = 0
KOD1 201741Z 17013KT 35/20 A2989 RMK A01 T03520199  RH  041%=      5-min Rain = 0
KOD1 201742Z 18015KT 35/20 A2989 RMK A01 T03540202  RH  041%=      5-min Rain = 0
KOD1 201743Z 17012KT 35/20 A2989 RMK A01 T03540201  RH  041%=      5-min Rain = 0
KOD1 201744Z 17014KT 35/20 A2989 RMK A01 T03540201  RH  041%=      5-min Rain = 0
KOD1 201745Z 18014KT 35/20 A2989 RMK A01 T03530200  RH  041%=      5-min Rain = 0
KOD1 201746Z 18013KT 35/20 A2989 RMK A01 T03530201  RH  041%=      5-min Rain = 0
KOD1 201747Z 19015KT 35/20 A2989 RMK A01 T03520200  RH  041%=      5-min Rain = 0
KOD1 201748Z 17012KT 35/20 A2989 RMK A01 T03500201  RH  042%=      5-min Rain = 0
KOD1 201749Z 17013KT 35/20 A2988 RMK A01 T03520201  RH  041%=      5-min Rain = 0
KOD1 201750Z 17014KT 35/20 A2988 RMK A01 T03520202  RH  041%=      5-min Rain = 0
KOD1 201751Z 17019KT 35/20 A2988 RMK A01 T03540201  RH  041%=      5-min Rain = 0
KOD1 201752Z 17016KT 35/20 A2989 RMK A01 T03520198  RH  041%=      5-min Rain = 0
KOD1 201753Z 17012KT 35/20 A2988 RMK A01 T03510201  RH  042%=      5-min Rain = 0
KOD1 201754Z 16013G18KT 35/20 A2988 RMK A01 T03530203  RH  042%=      5-min Rain = 0
KOD1 201755Z 16016KT 36/20 A2988 RMK A01 T03550198  RH  040%=      5-min Rain = 0
KOD1 201756Z 15016G21KT 36/20 A2988 RMK A01 T03550197  RH  040%=      5-min Rain = 0
KOD1 201757Z 15017KT 36/19 A2988 RMK A01 T03550194  RH  039%=      5-min Rain = 0
KOD1 201758Z 15015KT 35/20 A2988 RMK A01 T03530195  RH  040%=      5-min Rain = 0
KOD1 201759Z 15014KT 36/20 A2988 RMK A01 T03550195  RH  039%=      5-min Rain = 0
KOD1 201800Z 17016KT 36/20 A2988 RMK A01 T03560197  RH  039%=      5-min Rain = 0
KOD1 201801Z 17014KT 35/19 A2988 RMK A01 T03540191  RH  038%=      5-min Rain = 0
KOD1 201802Z 18014KT 35/19 A2988 RMK A01 T03530193  RH  039%=      5-min Rain = 0
KOD1 201803Z 18011KT 35/20 A2988 RMK A01 T03530196  RH  040%=      5-min Rain = 0
KOD1 201804Z 19016KT 35/20 A2988 RMK A01 T03540198  RH  040%=      5-min Rain = 0
KOD1 201805Z 18014KT 36/20 A2988 RMK A01 T03560198  RH  040%=      5-min Rain = 0
KOD1 201806Z 16015KT 36/20 A2988 RMK A01 T03570201  RH  040%=      5-min Rain = 0
KOD1 201807Z 17013KT 36/20 A2988 RMK A01 T03580197  RH  039%=      5-min Rain = 0
KOD1 201808Z 17015KT 36/19 A2988 RMK A01 T03570193  RH  038%=      5-min Rain = 0
KOD1 201809Z 17018KT 36/20 A2988 RMK A01 T03560196  RH  039%=      5-min Rain = 0
KOD1 201810Z 17016G23KT 36/20 A2988 RMK A01 T03550199  RH  040%=      5-min Rain = 0
KOD1 201811Z 16016KT 36/20 A2988 RMK A01 T03550201  RH  041%=      5-min Rain = 0
KOD1 201812Z 17013KT 36/20 A2988 RMK A01 T03560202  RH  041%=      5-min Rain = 0
KOD1 201813Z 16015KT 36/20 A2988 RMK A01 T03560200  RH  040%=      5-min Rain = 0
KOD1 201814Z 15018KT 36/20 A2988 RMK A01 T03580196  RH  039%=      5-min Rain = 0
KOD1 201815Z 15017KT 36/19 A2988 RMK A01 T03570194  RH  038%=      5-min Rain = 0
KOD1 201816Z 16012KT 36/20 A2988 RMK A01 T03570197  RH  039%=      5-min Rain = 0
KOD1 201817Z 16016KT 36/20 A2988 RMK A01 T03610201  RH  039%=      5-min Rain = 0
KOD1 201818Z 17018KT 36/20 A2988 RMK A01 T03620197  RH  038%=      5-min Rain = 0
KOD1 201819Z 18013KT 36/20 A2988 RMK A01 T03590197  RH  039%=      5-min Rain = 0
KOD1 201820Z 18013G18KT 36/20 A2988 RMK A01 T03590199  RH  039%=      5-min Rain = 0
KOD1 201821Z 17015KT 36/20 A2988 RMK A01 T03590197  RH  039%=      5-min Rain = 0
KOD1 201822Z 18015KT 36/20 A2988 RMK A01 T03600197  RH  039%=      5-min Rain = 0
KOD1 201823Z 17014KT 36/20 A2988 RMK A01 T03600195  RH  038%=      5-min Rain = 0
KOD1 201824Z 18017KT 36/20 A2988 RMK A01 T03600195  RH  038%=      5-min Rain = 0
KOD1 201825Z 16015KT 36/19 A2988 RMK A01 T03600193  RH  038%=      5-min Rain = 0
KOD1 201826Z 17018G23KT 36/19 A2987 RMK A01 T03590194  RH  038%=      5-min Rain = 0
KOD1 201827Z 17019KT 36/19 A2987 RMK A01 T03570194  RH  039%=      5-min Rain = 0
KOD1 201828Z 16016KT 36/20 A2987 RMK A01 T03570196  RH  039%=      5-min Rain = 0
KOD1 201829Z 16014KT 36/20 A2987 RMK A01 T03580195  RH  039%=      5-min Rain = 0
KOD1 201830Z 17016KT 36/20 A2987 RMK A01 T03580196  RH  039%=      5-min Rain = 0
KOD1 201831Z 16013KT 36/20 A2987 RMK A01 T03580199  RH  040%=      5-min Rain = 0
KOD1 201832Z 16012KT 36/20 A2987 RMK A01 T03610201  RH  039%=      5-min Rain = 0
KOD1 201833Z 16011G18KT 36/20 A2987 RMK A01 T03630202  RH  039%=      5-min Rain = 0
KOD1 201834Z 15017KT 36/20 A2987 RMK A01 T03630196  RH  038%=      5-min Rain = 0
KOD1 201835Z 15014KT 36/20 A2987 RMK A01 T03600195  RH  038%=      5-min Rain = 0
KOD1 201836Z 14018KT 36/20 A2987 RMK A01 T03600196  RH  038%=      5-min Rain = 0
KOD1 201837Z 14013G18KT 36/20 A2987 RMK A01 T03620195  RH  038%=      5-min Rain = 0
KOD1 201838Z 15015KT 37/20 A2987 RMK A01 T03650197  RH  038%=      5-min Rain = 0
KOD1 201839Z 17014KT 37/20 A2987 RMK A01 T03660197  RH  037%=      5-min Rain = 0
KOD1 201840Z 17013KT 36/20 A2987 RMK A01 T03630195  RH  038%=      5-min Rain = 0
KOD1 201841Z 16015KT 36/20 A2987 RMK A01 T03630198  RH  038%=      5-min Rain = 0
KOD1 201842Z 17017KT 36/20 A2987 RMK A01 T03640196  RH  037%=      5-min Rain = 0
KOD1 201843Z 14011KT 36/20 A2987 RMK A01 T03640196  RH  037%=      5-min Rain = 0
KOD1 201844Z 16014G19KT 37/19 A2987 RMK A01 T03650193  RH  037%=      5-min Rain = 0
KOD1 201845Z 17015KT 36/19 A2987 RMK A01 T03640191  RH  036%=      5-min Rain = 0
KOD1 201846Z 17016G23KT 36/19 A2987 RMK A01 T03630193  RH  037%=      5-min Rain = 0
KOD1 201847Z 17016KT 36/19 A2987 RMK A01 T03640191  RH  036%=      5-min Rain = 0
KOD1 201848Z 16017G22KT 36/19 A2987 RMK A01 T03620191  RH  037%=      5-min Rain = 0
KOD1 201849Z 17015KT 36/20 A2987 RMK A01 T03630195  RH  038%=      5-min Rain = 0
KOD1 201850Z 17013KT 37/20 A2987 RMK A01 T03650197  RH  038%=      5-min Rain = 0
KOD1 201851Z 17014G19KT 36/20 A2986 RMK A01 T03640197  RH  038%=      5-min Rain = 0
KOD1 201852Z 17014G21KT 36/20 A2987 RMK A01 T03640197  RH  038%=      5-min Rain = 0
KOD1 201853Z 16018KT 36/19 A2986 RMK A01 T03640189  RH  036%=      5-min Rain = 0
KOD1 201854Z 17017KT 37/19 A2986 RMK A01 T03660190  RH  036%=      5-min Rain = 0
KOD1 201855Z 17016KT 36/19 A2986 RMK A01 T03640190  RH  036%=      5-min Rain = 0
KOD1 201856Z 17014KT 36/19 A2986 RMK A01 T03620193  RH  037%=      5-min Rain = 0
KOD1 201857Z 17013KT 36/20 A2986 RMK A01 T03610195  RH  038%=      5-min Rain = 0
KOD1 201858Z 15016KT 37/19 A2986 RMK A01 T03650193  RH  037%=      5-min Rain = 0
KOD1 201859Z 16016KT 37/19 A2986 RMK A01 T03660191  RH  036%=      5-min Rain = 0
KOD1 201900Z 16012KT 36/19 A2986 RMK A01 T03630192  RH  037%=      5-min Rain = 0
KOD1 201901Z 16016G21KT 37/19 A2986 RMK A01 T03650194  RH  037%=      5-min Rain = 0
KOD1 201902Z 16019KT 37/19 A2986 RMK A01 T03660188  RH  035%=      5-min Rain = 0
KOD1 201903Z 17016KT 37/19 A2986 RMK A01 T03670190  RH  036%=      5-min Rain = 0
KOD1 201904Z 18015KT 37/19 A2986 RMK A01 T03650189  RH  036%=      5-min Rain = 0
KOD1 201905Z 17012KT 36/19 A2986 RMK A01 T03640191  RH  037%=      5-min Rain = 0
KOD1 201906Z 17012KT 36/19 A2986 RMK A01 T03640194  RH  037%=      5-min Rain = 0
KOD1 201907Z 17016KT 37/19 A2986 RMK A01 T03650190  RH  036%=      5-min Rain = 0
KOD1 201908Z 17016KT 37/19 A2986 RMK A01 T03660190  RH  036%=      5-min Rain = 0
KOD1 201909Z 16017G22KT 37/19 A2986 RMK A01 T03670187  RH  035%=      5-min Rain = 0
KOD1 201910Z 17016KT 37/19 A2986 RMK A01 T03650186  RH  035%=      5-min Rain = 0
KOD1 201911Z 16014KT 36/19 A2986 RMK A01 T03620190  RH  036%=      5-min Rain = 0
KOD1 201912Z 15013KT 36/19 A2986 RMK A01 T03630190  RH  036%=      5-min Rain = 0
KOD1 201913Z 16014KT 37/19 A2986 RMK A01 T03650188  RH  036%=      5-min Rain = 0
KOD1 201914Z 18016KT 37/18 A2986 RMK A01 T03660179  RH  033%=      5-min Rain = 0
KOD1 201915Z 18016KT 37/18 A2986 RMK A01 T03680182  RH  034%=      5-min Rain = 0
KOD1 201916Z 17016KT 37/18 A2985 RMK A01 T03650183  RH  035%=      5-min Rain = 0
KOD1 201917Z 17016KT 37/19 A2985 RMK A01 T03650187  RH  035%=      5-min Rain = 0
KOD1 201918Z 16016KT 37/19 A2985 RMK A01 T03660187  RH  035%=      5-min Rain = 0
KOD1 201919Z 16015KT 37/18 A2985 RMK A01 T03660184  RH  034%=      5-min Rain = 0
KOD1 201920Z 15015KT 37/19 A2985 RMK A01 T03650188  RH  035%=      5-min Rain = 0
KOD1 201921Z 16017KT 37/19 A2985 RMK A01 T03660190  RH  036%=      5-min Rain = 0
KOD1 201922Z 17017KT 37/19 A2985 RMK A01 T03650187  RH  035%=      5-min Rain = 0
KOD1 201923Z 16017KT 37/18 A2985 RMK A01 T03660183  RH  034%=      5-min Rain = 0
KOD1 201924Z 16016KT 37/18 A2985 RMK A01 T03660182  RH  034%=      5-min Rain = 0
KOD1 201925Z 17015KT 37/18 A2985 RMK A01 T03680183  RH  034%=      5-min Rain = 0
KOD1 201926Z 18017KT 37/18 A2985 RMK A01 T03700180  RH  033%=      5-min Rain = 0
KOD1 201927Z 18019KT 37/18 A2985 RMK A01 T03680181  RH  033%=      5-min Rain = 0
KOD1 201928Z 17017G22KT 37/19 A2985 RMK A01 T03680186  RH  035%=      5-min Rain = 0
KOD1 201929Z 17014KT 37/19 A2985 RMK A01 T03710189  RH  035%=      5-min Rain = 0
KOD1 201930Z 16016KT 37/18 A2985 RMK A01 T03740184  RH  033%=      5-min Rain = 0
KOD1 201931Z 17015G20KT 37/18 A2985 RMK A01 T03720184  RH  033%=      5-min Rain = 0
KOD1 201932Z 17019KT 37/19 A2985 RMK A01 T03690187  RH  034%=      5-min Rain = 0
KOD1 201933Z 17017KT 37/19 A2985 RMK A01 T03680187  RH  035%=      5-min Rain = 0
KOD1 201934Z 16016G24KT 37/19 A2985 RMK A01 T03660185  RH  035%=      5-min Rain = 0
KOD1 201935Z 16016G22KT 37/19 A2985 RMK A01 T03650185  RH  035%=      5-min Rain = 0
KOD1 201936Z 14015G21KT 37/19 A2985 RMK A01 T03680186  RH  035%=      5-min Rain = 0
KOD1 201937Z 15015KT 37/19 A2985 RMK A01 T03690185  RH  034%=      5-min Rain = 0
KOD1 201938Z 15012G17KT 37/19 A2985 RMK A01 T03680185  RH  034%=      5-min Rain = 0
KOD1 201939Z 17017G24KT 37/19 A2985 RMK A01 T03720189  RH  034%=      5-min Rain = 0
KOD1 201940Z 17016KT 37/19 A2985 RMK A01 T03700186  RH  034%=      5-min Rain = 0
KOD1 201941Z 16016KT 37/19 A2985 RMK A01 T03690187  RH  034%=      5-min Rain = 0
KOD1 201942Z 16013KT 37/19 A2985 RMK A01 T03680185  RH  034%=      5-min Rain = 0
KOD1 201943Z 16013KT 37/19 A2985 RMK A01 T03700185  RH  034%=      5-min Rain = 0
KOD1 201944Z 17017KT 37/19 A2985 RMK A01 T03710185  RH  034%=      5-min Rain = 0
KOD1 201945Z 16014KT 37/19 A2985 RMK A01 T03700188  RH  034%=      5-min Rain = 0
KOD1 201946Z 16014KT 37/19 A2985 RMK A01 T03710188  RH  034%=      5-min Rain = 0
KOD1 201947Z 16012KT 37/19 A2985 RMK A01 T03710185  RH  034%=      5-min Rain = 0
KOD1 201948Z 17013G19KT 37/18 A2985 RMK A01 T03700183  RH  034%=      5-min Rain = 0
KOD1 201949Z 17018KT 37/19 A2985 RMK A01 T03700186  RH  034%=      5-min Rain = 0
KOD1 201950Z 16017KT 37/19 A2985 RMK A01 T03710185  RH  034%=      5-min Rain = 0
KOD1 201951Z 17013KT 37/19 A2985 RMK A01 T03700186  RH  034%=      5-min Rain = 0
KOD1 201952Z 17012KT 37/19 A2985 RMK A01 T03710186  RH  034%=      5-min Rain = 0
KOD1 201953Z 16011KT 37/19 A2985 RMK A01 T03710185  RH  034%=      5-min Rain = 0
KOD1 201954Z 15017KT 37/18 A2985 RMK A01 T03720183  RH  033%=      5-min Rain = 0
KOD1 201955Z 15019KT 37/18 A2985 RMK A01 T03720182  RH  033%=      5-min Rain = 0
KOD1 201956Z 15017G22KT 37/18 A2985 RMK A01 T03710182  RH  033%=      5-min Rain = 0
KOD1 201957Z 16018KT 37/19 A2985 RMK A01 T03730186  RH  034%=      5-min Rain = 0
KOD1 201958Z 14017KT 37/19 A2985 RMK A01 T03720185  RH  034%=      5-min Rain = 0
KOD1 201959Z 14014KT 37/18 A2985 RMK A01 T03700180  RH  033%=      5-min Rain = 0
KOD1 202000Z 16013KT 37/19 A2985 RMK A01 T03710187  RH  034%=      5-min Rain = 0
KOD1 202001Z 16016KT 37/18 A2984 RMK A01 T03730184  RH  033%=      5-min Rain = 0
KOD1 202002Z 16016G21KT 37/19 A2984 RMK A01 T03720189  RH  034%=      5-min Rain = 0
KOD1 202003Z 17015KT 37/19 A2984 RMK A01 T03720187  RH  034%=      5-min Rain = 0
KOD1 202004Z 16018KT 37/19 A2984 RMK A01 T03710188  RH  034%=      5-min Rain = 0
KOD1 202005Z 16016KT 37/19 A2984 RMK A01 T03710187  RH  034%=      5-min Rain = 0
KOD1 202006Z 17018KT 37/19 A2984 RMK A01 T03710187  RH  034%=      5-min Rain = 0
KOD1 202007Z 18016KT 37/18 A2984 RMK A01 T03710181  RH  033%=      5-min Rain = 0
KOD1 202008Z 17016KT 37/18 A2984 RMK A01 T03730181  RH  033%=      5-min Rain = 0
KOD1 202009Z 16017KT 37/18 A2984 RMK A01 T03740177  RH  031%=      5-min Rain = 0
KOD1 202010Z 17015KT 37/18 A2984 RMK A01 T03730181  RH  033%=      5-min Rain = 0
KOD1 202011Z 16011KT 37/18 A2984 RMK A01 T03720182  RH  033%=      5-min Rain = 0
KOD1 202012Z 16011KT 37/18 A2984 RMK A01 T03730182  RH  033%=      5-min Rain = 0
KOD1 202013Z 17015KT 38/19 A2984 RMK A01 T03750185  RH  033%=      5-min Rain = 0
KOD1 202014Z 18014KT 38/19 A2984 RMK A01 T03750189  RH  034%=      5-min Rain = 0
KOD1 202015Z 16013KT 37/19 A2984 RMK A01 T03740189  RH  034%=      5-min Rain = 0
KOD1 202016Z 15013KT 37/19 A2984 RMK A01 T03740189  RH  034%=      5-min Rain = 0
KOD1 202017Z 16013KT 37/19 A2984 RMK A01 T03740190  RH  034%=      5-min Rain = 0
KOD1 202018Z 17013G18KT 37/19 A2984 RMK A01 T03740187  RH  034%=      5-min Rain = 0
KOD1 202019Z 17014KT 37/19 A2984 RMK A01 T03740189  RH  034%=      5-min Rain = 0
KOD1 202020Z 16016G21KT 37/19 A2984 RMK A01 T03730186  RH  034%=      5-min Rain = 0
KOD1 202021Z 14014G19KT 37/18 A2984 RMK A01 T03730184  RH  033%=      5-min Rain = 0
KOD1 202022Z 14016G22KT 37/18 A2984 RMK A01 T03740182  RH  032%=      5-min Rain = 0
KOD1 202023Z 16018KT 38/19 A2984 RMK A01 T03750186  RH  033%=      5-min Rain = 0
KOD1 202024Z 16017G22KT 37/19 A2984 RMK A01 T03740185  RH  033%=      5-min Rain = 0
KOD1 202025Z 16014KT 37/19 A2984 RMK A01 T03730186  RH  034%=      5-min Rain = 0
KOD1 202026Z 16015KT 37/19 A2984 RMK A01 T03730185  RH  033%=      5-min Rain = 0
KOD1 202027Z 16016KT 37/19 A2984 RMK A01 T03720185  RH  033%=      5-min Rain = 0
KOD1 202028Z 16017KT 37/19 A2984 RMK A01 T03720186  RH  034%=      5-min Rain = 0
KOD1 202029Z 16018KT 37/19 A2984 RMK A01 T03720185  RH  034%=      5-min Rain = 0
KOD1 202030Z 17015KT 37/18 A2984 RMK A01 T03720182  RH  033%=      5-min Rain = 0
KOD1 202031Z 17016G21KT 37/19 A2984 RMK A01 T03730187  RH  034%=      5-min Rain = 0
KOD1 202032Z 16017KT 38/19 A2984 RMK A01 T03750187  RH  034%=      5-min Rain = 0
KOD1 202033Z 17014KT 37/18 A2984 RMK A01 T03730184  RH  033%=      5-min Rain = 0
KOD1 202034Z 18014KT 37/18 A2984 RMK A01 T03710184  RH  034%=      5-min Rain = 0
KOD1 202035Z 16015G20KT 37/19 A2984 RMK A01 T03710186  RH  034%=      5-min Rain = 0
KOD1 202036Z 16017KT 37/18 A2984 RMK A01 T03720183  RH  033%=      5-min Rain = 0
KOD1 202037Z 16015KT 37/18 A2984 RMK A01 T03730183  RH  033%=      5-min Rain = 0
KOD1 202038Z 17014G21KT 37/18 A2984 RMK A01 T03730183  RH  033%=      5-min Rain = 0
KOD1 202039Z 17016KT 37/19 A2983 RMK A01 T03730185  RH  033%=      5-min Rain = 0
KOD1 202040Z 15014KT 37/18 A2984 RMK A01 T03740184  RH  033%=      5-min Rain = 0
KOD1 202041Z 15017KT 38/18 A2984 RMK A01 T03770181  RH  032%=      5-min Rain = 0
KOD1 202042Z 16016G21KT 38/18 A2984 RMK A01 T03760181  RH  032%=      5-min Rain = 0
KOD1 202043Z 16014G19KT 38/18 A2983 RMK A01 T03750182  RH  032%=      5-min Rain = 0
KOD1 202044Z 16016KT 37/18 A2983 RMK A01 T03740181  RH  032%=      5-min Rain = 0
KOD1 202045Z 14015KT 38/18 A2983 RMK A01 T03750180  RH  032%=      5-min Rain = 0
KOD1 202046Z 15020KT 38/18 A2983 RMK A01 T03770179  RH  031%=      5-min Rain = 0
KOD1 202047Z 15015KT 38/18 A2983 RMK A01 T03750180  RH  032%=      5-min Rain = 0
KOD1 202048Z 16011KT 38/19 A2983 RMK A01 T03770186  RH  033%=      5-min Rain = 0
KOD1 202049Z 16016KT 38/19 A2983 RMK A01 T03810189  RH  033%=      5-min Rain = 0
KOD1 202050Z 16020KT 38/18 A2983 RMK A01 T03800184  RH  032%=      5-min Rain = 0
KOD1 202051Z 16018KT 38/19 A2983 RMK A01 T03760185  RH  033%=      5-min Rain = 0
KOD1 202052Z 17016KT 37/18 A2983 RMK A01 T03740184  RH  033%=      5-min Rain = 0
KOD1 202053Z 16015KT 37/18 A2983 RMK A01 T03740184  RH  033%=      5-min Rain = 0
KOD1 202054Z 15017KT 38/18 A2983 RMK A01 T03750181  RH  032%=      5-min Rain = 0
KOD1 202055Z 16013KT 37/18 A2983 RMK A01 T03740183  RH  033%=      5-min Rain = 0
KOD1 202056Z 15017G22KT 38/19 A2983 RMK A01 T03780185  RH  032%=      5-min Rain = 0
KOD1 202057Z 14016G21KT 38/18 A2983 RMK A01 T03790180  RH  031%=      5-min Rain = 0
KOD1 202058Z 14017KT 38/18 A2983 RMK A01 T03810181  RH  031%=      5-min Rain = 0
KOD1 202059Z 16016KT 38/18 A2983 RMK A01 T03790180  RH  031%=      5-min Rain = 0
KOD1 202100Z 16021KT 38/18 A2983 RMK A01 T03760183  RH  032%=      5-min Rain = 0
KOD1 202101Z 16019KT 38/18 A2983 RMK A01 T03750181  RH  032%=      5-min Rain = 0
KOD1 202102Z 17017KT 37/18 A2983 RMK A01 T03740183  RH  033%=      5-min Rain = 0
KOD1 202103Z 17016KT 37/18 A2983 RMK A01 T03740182  RH  033%=      5-min Rain = 0
KOD1 202104Z 15015G20KT 37/18 A2983 RMK A01 T03740181  RH  032%=      5-min Rain = 0
KOD1 202105Z 15020G25KT 38/18 A2983 RMK A01 T03770181  RH  032%=      5-min Rain = 0
KOD1 202106Z 14019KT 38/18 A2983 RMK A01 T03770180  RH  032%=      5-min Rain = 0
KOD1 202107Z 14017KT 38/18 A2983 RMK A01 T03760180  RH  032%=      5-min Rain = 0
KOD1 202108Z 15017KT 38/18 A2983 RMK A01 T03770182  RH  032%=      5-min Rain = 0
KOD1 202109Z 16017G22KT 38/18 A2983 RMK A01 T03800182  RH  031%=      5-min Rain = 0
KOD1 202110Z 16016KT 38/18 A2983 RMK A01 T03800182  RH  031%=      5-min Rain = 0
KOD1 202111Z 16017KT 38/18 A2983 RMK A01 T03770179  RH  031%=      5-min Rain = 0
KOD1 202112Z 16017KT 38/18 A2983 RMK A01 T03760176  RH  031%=      5-min Rain = 0
KOD1 202113Z 16017KT 38/18 A2983 RMK A01 T03770176  RH  031%=      5-min Rain = 0
KOD1 202114Z 17016KT 38/18 A2983 RMK A01 T03760175  RH  031%=      5-min Rain = 0
KOD1 202115Z 17016KT 37/18 A2982 RMK A01 T03740177  RH  031%=      5-min Rain = 0
KOD1 202116Z 16018KT 37/18 A2982 RMK A01 T03740177  RH  031%=      5-min Rain = 0
KOD1 202117Z 17015KT 37/18 A2982 RMK A01 T03740177  RH  032%=      5-min Rain = 0
KOD1 202118Z 15014KT 38/18 A2982 RMK A01 T03760181  RH  032%=      5-min Rain = 0
KOD1 202119Z 16019KT 38/18 A2982 RMK A01 T03800179  RH  031%=      5-min Rain = 0
KOD1 202120Z 15015G21KT 38/18 A2982 RMK A01 T03770180  RH  032%=      5-min Rain = 0
KOD1 202121Z 15017G22KT 38/18 A2982 RMK A01 T03780177  RH  031%=      5-min Rain = 0
KOD1 202122Z 15015KT 38/18 A2982 RMK A01 T03810178  RH  031%=      5-min Rain = 0
KOD1 202123Z 15017KT 38/18 A2982 RMK A01 T03800177  RH  030%=      5-min Rain = 0
KOD1 202124Z 16018KT 38/18 A2982 RMK A01 T03790176  RH  031%=      5-min Rain = 0
KOD1 202125Z 17017KT 38/18 A2982 RMK A01 T03770177  RH  031%=      5-min Rain = 0
KOD1 202126Z 16017KT 38/18 A2982 RMK A01 T03750175  RH  031%=      5-min Rain = 0
KOD1 202127Z 16015KT 38/18 A2982 RMK A01 T03750180  RH  032%=      5-min Rain = 0
KOD1 202128Z 17019KT 38/18 A2982 RMK A01 T03790181  RH  032%=      5-min Rain = 0
KOD1 202129Z 18019KT 38/18 A2982 RMK A01 T03760176  RH  031%=      5-min Rain = 0
KOD1 202130Z 17013G18KT 37/18 A2982 RMK A01 T03730175  RH  031%=      5-min Rain = 0
KOD1 202131Z 16016G22KT 38/18 A2982 RMK A01 T03750178  RH  032%=      5-min Rain = 0
KOD1 202132Z 15016KT 38/18 A2982 RMK A01 T03750177  RH  031%=      5-min Rain = 0
KOD1 202133Z 16018KT 38/18 A2982 RMK A01 T03780177  RH  031%=      5-min Rain = 0
KOD1 202134Z 16019KT 38/18 A2982 RMK A01 T03790175  RH  030%=      5-min Rain = 0
KOD1 202135Z 16016G21KT 38/18 A2982 RMK A01 T03790175  RH  030%=      5-min Rain = 0
KOD1 202136Z 18014KT 38/18 A2982 RMK A01 T03780177  RH  031%=      5-min Rain = 0
KOD1 202137Z 17018G23KT 38/18 A2982 RMK A01 T03760175  RH  031%=      5-min Rain = 0
KOD1 202138Z 17017KT 38/18 A2982 RMK A01 T03750177  RH  031%=      5-min Rain = 0
KOD1 202139Z 17017KT 37/18 A2982 RMK A01 T03740178  RH  032%=      5-min Rain = 0
KOD1 202140Z 16013KT 37/18 A2981 RMK A01 T03730179  RH  032%=      5-min Rain = 0
KOD1 202141Z 15018G24KT 38/18 A2981 RMK A01 T03760178  RH  031%=      5-min Rain = 0
KOD1 202142Z 15019KT 38/18 A2981 RMK A01 T03780175  RH  031%=      5-min Rain = 0
KOD1 202143Z 17018KT 38/17 A2981 RMK A01 T03760174  RH  031%=      5-min Rain = 0
KOD1 202144Z 16015KT 37/18 A2981 RMK A01 T03740176  RH  031%=      5-min Rain = 0
KOD1 202145Z 16018KT 38/18 A2981 RMK A01 T03750176  RH  031%=      5-min Rain = 0
KOD1 202146Z 15017KT 38/18 A2981 RMK A01 T03750176  RH  031%=      5-min Rain = 0
KOD1 202147Z 15015KT 38/18 A2981 RMK A01 T03770177  RH  031%=      5-min Rain = 0
KOD1 202148Z 16015KT 38/18 A2981 RMK A01 T03790179  RH  031%=      5-min Rain = 0
KOD1 202149Z 15014G21KT 38/18 A2981 RMK A01 T03780180  RH  032%=      5-min Rain = 0
KOD1 202150Z 16017KT 38/18 A2981 RMK A01 T03790180  RH  031%=      5-min Rain = 0
KOD1 202151Z 16017KT 38/18 A2981 RMK A01 T03790179  RH  031%=      5-min Rain = 0
KOD1 202152Z 15018KT 38/18 A2981 RMK A01 T03770176  RH  031%=      5-min Rain = 0
KOD1 202153Z 15019KT 38/18 A2981 RMK A01 T03780176  RH  031%=      5-min Rain = 0
KOD1 202154Z 16015G21KT 38/18 A2981 RMK A01 T03780178  RH  031%=      5-min Rain = 0
KOD1 202155Z 17019KT 38/18 A2981 RMK A01 T03780180  RH  031%=      5-min Rain = 0
KOD1 202156Z 15020KT 38/18 A2981 RMK A01 T03760176  RH  031%=      5-min Rain = 0
KOD1 202157Z 15018KT 38/17 A2981 RMK A01 T03760173  RH  030%=      5-min Rain = 0
KOD1 202158Z 15017KT 38/17 A2981 RMK A01 T03770174  RH  030%=      5-min Rain = 0
KOD1 202159Z 14018G25KT 38/17 A2981 RMK A01 T03780172  RH  030%=      5-min Rain = 0
KOD1 202200Z 15018KT 38/17 A2981 RMK A01 T03760170  RH  030%=      5-min Rain = 0
KOD1 202201Z 16014G20KT 38/18 A2981 RMK A01 T03770176  RH  031%=      5-min Rain = 0
KOD1 202202Z 15013G18KT 38/18 A2981 RMK A01 T03780178  RH  031%=      5-min Rain = 0
KOD1 202203Z 15017KT 38/18 A2981 RMK A01 T03790177  RH  031%=      5-min Rain = 0
KOD1 202204Z 15020G25KT 38/17 A2981 RMK A01 T03790173  RH  030%=      5-min Rain = 0
KOD1 202205Z 15020G25KT 38/17 A2981 RMK A01 T03760173  RH  030%=      5-min Rain = 0
KOD1 202206Z 15020KT 38/17 A2981 RMK A01 T03750173  RH  031%=      5-min Rain = 0
KOD1 202207Z 14019KT 37/17 A2981 RMK A01 T03730171  RH  031%=      5-min Rain = 0
KOD1 202208Z 15017KT 37/17 A2981 RMK A01 T03730172  RH  031%=      5-min Rain = 0
KOD1 202209Z 16016KT 38/17 A2981 RMK A01 T03750174  RH  031%=      5-min Rain = 0
KOD1 202210Z 15019KT 37/17 A2981 RMK A01 T03740173  RH  031%=      5-min Rain = 0
KOD1 202211Z 15014G19KT 38/17 A2981 RMK A01 T03760174  RH  031%=      5-min Rain = 0
KOD1 202212Z 15016KT 38/17 A2981 RMK A01 T03790173  RH  030%=      5-min Rain = 0
KOD1 202213Z 15015KT 38/17 A2981 RMK A01 T03780172  RH  030%=      5-min Rain = 0
KOD1 202214Z 14014KT 38/17 A2981 RMK A01 T03780174  RH  030%=      5-min Rain = 0
KOD1 202215Z 16018KT 38/18 A2981 RMK A01 T03790177  RH  031%=      5-min Rain = 0
KOD1 202216Z 16019KT 38/18 A2981 RMK A01 T03760177  RH  031%=      5-min Rain = 0
KOD1 202217Z 16018KT 37/18 A2981 RMK A01 T03740176  RH  031%=      5-min Rain = 0
KOD1 202218Z 16018KT 37/17 A2981 RMK A01 T03740174  RH  031%=      5-min Rain = 0
KOD1 202219Z 16015KT 37/17 A2981 RMK A01 T03720174  RH  031%=      5-min Rain = 0
KOD1 202220Z 16018KT 37/18 A2981 RMK A01 T03720175  RH  032%=      5-min Rain = 0
KOD1 202221Z 17017KT 37/18 A2981 RMK A01 T03720177  RH  032%=      5-min Rain = 0
KOD1 202222Z 18018KT 37/18 A2981 RMK A01 T03720177  RH  032%=      5-min Rain = 0
KOD1 202223Z 17018KT 37/18 A2981 RMK A01 T03720178  RH  032%=      5-min Rain = 0
KOD1 202224Z 16016KT 37/18 A2981 RMK A01 T03720176  RH  032%=      5-min Rain = 0
KOD1 202225Z 16018KT 37/18 A2981 RMK A01 T03720176  RH  032%=      5-min Rain = 0
KOD1 202226Z 16020KT 37/17 A2981 RMK A01 T03720174  RH  031%=      5-min Rain = 0
KOD1 202227Z 15021KT 37/17 A2981 RMK A01 T03720174  RH  031%=      5-min Rain = 0
KOD1 202228Z 15019KT 37/17 A2981 RMK A01 T03730174  RH  031%=      5-min Rain = 0
KOD1 202229Z 15014KT 37/18 A2981 RMK A01 T03740176  RH  031%=      5-min Rain = 0
KOD1 202230Z 16014KT 37/18 A2981 RMK A01 T03740176  RH  031%=      5-min Rain = 0
KOD1 202231Z 16014KT 38/18 A2981 RMK A01 T03750176  RH  031%=      5-min Rain = 0
KOD1 202232Z 16017G22KT 38/18 A2981 RMK A01 T03760176  RH  031%=      5-min Rain = 0
KOD1 202233Z 16014KT 38/18 A2981 RMK A01 T03750175  RH  031%=      5-min Rain = 0
KOD1 202234Z 15018KT 38/17 A2981 RMK A01 T03750174  RH  031%=      5-min Rain = 0
KOD1 202235Z 16016KT 38/18 A2981 RMK A01 T03750175  RH  031%=      5-min Rain = 0
KOD1 202236Z 16018KT 38/18 A2981 RMK A01 T03750177  RH  032%=      5-min Rain = 0
KOD1 202237Z 16019KT 37/18 A2981 RMK A01 T03730179  RH  032%=      5-min Rain = 0
KOD1 202238Z 16015KT 37/18 A2981 RMK A01 T03710180  RH  033%=      5-min Rain = 0
KOD1 202239Z 17014KT 37/18 A2981 RMK A01 T03710180  RH  033%=      5-min Rain = 0
KOD1 202240Z 16012G17KT 37/18 A2981 RMK A01 T03710183  RH  033%=      5-min Rain = 0
KOD1 202241Z 16016G21KT 37/18 A2981 RMK A01 T03720182  RH  033%=      5-min Rain = 0
KOD1 202242Z 15019G24KT 37/18 A2981 RMK A01 T03730180  RH  032%=      5-min Rain = 0
KOD1 202243Z 15018KT 37/18 A2981 RMK A01 T03740180  RH  032%=      5-min Rain = 0
KOD1 202244Z 15015KT 37/18 A2981 RMK A01 T03740181  RH  032%=      5-min Rain = 0
KOD1 202245Z 15015G20KT 38/18 A2981 RMK A01 T03750179  RH  032%=      5-min Rain = 0
KOD1 202246Z 16019KT 38/18 A2981 RMK A01 T03750177  RH  031%=      5-min Rain = 0
KOD1 202247Z 15017KT 37/17 A2981 RMK A01 T03740174  RH  031%=      5-min Rain = 0
KOD1 202248Z 14016KT 37/17 A2981 RMK A01 T03730171  RH  031%=      5-min Rain = 0
KOD1 202249Z 15017KT 37/17 A298 RMK A01 T03740173  RH  031%=      5-min Rain = 0
KOD1 202250Z 16017KT 37/17 A298 RMK A01 T03730174  RH  031%=      5-min Rain = 0
KOD1 202251Z 16017KT 37/17 A298 RMK A01 T03720172  RH  031%=      5-min Rain = 0
KOD1 202252Z 16017KT 37/17 A298 RMK A01 T03720172  RH  031%=      5-min Rain = 0
KOD1 202253Z 16018KT 37/17 A298 RMK A01 T03720174  RH  031%=      5-min Rain = 0
KOD1 202254Z 16015KT 37/17 A298 RMK A01 T03710174  RH  031%=      5-min Rain = 0
KOD1 202255Z 16014KT 37/17 A298 RMK A01 T03710174  RH  031%=      5-min Rain = 0
KOD1 202256Z 16013KT 37/17 A298 RMK A01 T03710174  RH  031%=      5-min Rain = 0
KOD1 202257Z 16016G22KT 37/18 A298 RMK A01 T03720176  RH  032%=      5-min Rain = 0
KOD1 202258Z 16016KT 37/18 A298 RMK A01 T03720178  RH  032%=      5-min Rain = 0
KOD1 202259Z 16017KT 37/18 A298 RMK A01 T03720177  RH  032%=      5-min Rain = 0
KOD1 202300Z 16019KT 37/18 A298 RMK A01 T03700178  RH  032%=      5-min Rain = 0
KOD1 202301Z 16021KT 37/18 A298 RMK A01 T03700178  RH  033%=      5-min Rain = 0
KOD1 202302Z 16019KT 37/18 A298 RMK A01 T03690177  RH  032%=      5-min Rain = 0
KOD1 202303Z 15017KT 37/18 A298 RMK A01 T03690178  RH  033%=      5-min Rain = 0
KOD1 202304Z 15017KT 37/18 A298 RMK A01 T03690176  RH  032%=      5-min Rain = 0
KOD1 202305Z 15016G21KT 37/18 A298 RMK A01 T03690175  RH  032%=      5-min Rain = 0
KOD1 202306Z 15019KT 37/17 A298 RMK A01 T03700174  RH  032%=      5-min Rain = 0
KOD1 202307Z 15017KT 37/18 A298 RMK A01 T03700175  RH  032%=      5-min Rain = 0
KOD1 202308Z 15020KT 37/18 A298 RMK A01 T03700176  RH  032%=      5-min Rain = 0
KOD1 202309Z 15019KT 37/18 A298 RMK A01 T03700177  RH  032%=      5-min Rain = 0
KOD1 202310Z 15018KT 37/18 A298 RMK A01 T03700179  RH  033%=      5-min Rain = 0
KOD1 202311Z 14017G22KT 37/18 A298 RMK A01 T03710179  RH  032%=      5-min Rain = 0
KOD1 202312Z 14018KT 37/18 A298 RMK A01 T03720178  RH  032%=      5-min Rain = 0
KOD1 202313Z 15016KT 37/18 A298 RMK A01 T03710179  RH  032%=      5-min Rain = 0
KOD1 202314Z 16017G25KT 37/18 A298 RMK A01 T03720177  RH  032%=      5-min Rain = 0
KOD1 202315Z 16020KT 37/17 A298 RMK A01 T03700173  RH  031%=      5-min Rain = 0
KOD1 202316Z 15019KT 37/17 A298 RMK A01 T03690173  RH  032%=      5-min Rain = 0
KOD1 202317Z 15014KT 37/17 A298 RMK A01 T03680174  RH  032%=      5-min Rain = 0
KOD1 202318Z 15016KT 37/18 A298 RMK A01 T03700175  RH  032%=      5-min Rain = 0
KOD1 202319Z 16013G18KT 37/18 A298 RMK A01 T03700176  RH  032%=      5-min Rain = 0
KOD1 202320Z 16015KT 37/18 A298 RMK A01 T03700177  RH  032%=      5-min Rain = 0
KOD1 202321Z 16017KT 37/18 A298 RMK A01 T03690176  RH  032%=      5-min Rain = 0
KOD1 202322Z 16018KT 37/17 A298 RMK A01 T03680173  RH  032%=      5-min Rain = 0
KOD1 202323Z 16015G20KT 37/18 A298 RMK A01 T03680175  RH  032%=      5-min Rain = 0
KOD1 202324Z 15015KT 37/17 A298 RMK A01 T03680174  RH  032%=      5-min Rain = 0
KOD1 202325Z 15016KT 37/17 A298 RMK A01 T03690172  RH  031%=      5-min Rain = 0
KOD1 202326Z 16017KT 37/17 A298 RMK A01 T03700172  RH  031%=      5-min Rain = 0
KOD1 202327Z 16018KT 37/17 A298 RMK A01 T03690174  RH  032%=      5-min Rain = 0
KOD1 202328Z 16020KT 37/17 A298 RMK A01 T03680174  RH  032%=      5-min Rain = 0
KOD1 202329Z 16016G22KT 37/17 A298 RMK A01 T03670174  RH  032%=      5-min Rain = 0
KOD1 202330Z 16017KT 37/18 A298 RMK A01 T03660176  RH  033%=      5-min Rain = 0
KOD1 202331Z 17017KT 37/18 A298 RMK A01 T03660177  RH  033%=      5-min Rain = 0
KOD1 202332Z 16015KT 37/18 A298 RMK A01 T03650177  RH  033%=      5-min Rain = 0
KOD1 202333Z 15016KT 37/18 A298 RMK A01 T03650177  RH  033%=      5-min Rain = 0
KOD1 202334Z 16015G23KT 37/18 A298 RMK A01 T03670179  RH  033%=      5-min Rain = 0
KOD1 202335Z 16021KT 37/18 A298 RMK A01 T03670176  RH  033%=      5-min Rain = 0
KOD1 202336Z 16017KT 37/18 A298 RMK A01 T03660177  RH  033%=      5-min Rain = 0
KOD1 202337Z 16018KT 37/18 A298 RMK A01 T03660176  RH  033%=      5-min Rain = 0
KOD1 202338Z 16017KT 37/18 A298 RMK A01 T03660178  RH  033%=      5-min Rain = 0
KOD1 202339Z 17019KT 37/18 A298 RMK A01 T03660177  RH  033%=      5-min Rain = 0
KOD1 202340Z 17016KT 37/18 A298 RMK A01 T03650177  RH  033%=      5-min Rain = 0
KOD1 202341Z 16015KT 37/18 A298 RMK A01 T03650177  RH  033%=      5-min Rain = 0
KOD1 202342Z 16017KT 37/17 A298 RMK A01 T03650174  RH  033%=      5-min Rain = 0
KOD1 202343Z 16014KT 37/18 A298 RMK A01 T03650176  RH  033%=      5-min Rain = 0
KOD1 202344Z 15018KT 37/17 A298 RMK A01 T03650174  RH  033%=      5-min Rain = 0
KOD1 202345Z 15017KT 37/17 A298 RMK A01 T03650174  RH  032%=      5-min Rain = 0
KOD1 202346Z 15016KT 37/17 A298 RMK A01 T03650172  RH  032%=      5-min Rain = 0
KOD1 202347Z 15015KT 37/17 A298 RMK A01 T03670174  RH  032%=      5-min Rain = 0
KOD1 202348Z 15015KT 37/17 A298 RMK A01 T03670173  RH  032%=      5-min Rain = 0
KOD1 202349Z 17017KT 37/18 A298 RMK A01 T03660176  RH  033%=      5-min Rain = 0
KOD1 202350Z 16018KT 37/18 A298 RMK A01 T03650175  RH  033%=      5-min Rain = 0
KOD1 202351Z 16017KT 36/18 A298 RMK A01 T03640177  RH  033%=      5-min Rain = 0
KOD1 202352Z 17016G21KT 36/18 A298 RMK A01 T03630179  RH  034%=      5-min Rain = 0
KOD1 202353Z 16014KT 36/18 A298 RMK A01 T03640180  RH  034%=      5-min Rain = 0
KOD1 202354Z 15017KT 36/18 A298 RMK A01 T03640178  RH  033%=      5-min Rain = 0
KOD1 202355Z 16019KT 36/18 A298 RMK A01 T03640176  RH  033%=      5-min Rain = 0
KOD1 202356Z 16017KT 36/18 A298 RMK A01 T03640176  RH  033%=      5-min Rain = 0
KOD1 202357Z 15020KT 36/18 A298 RMK A01 T03630175  RH  033%=      5-min Rain = 0
KOD1 202358Z 17020KT 36/18 A298 RMK A01 T03630175  RH  033%=      5-min Rain = 0
KOD1 202359Z 17018KT 36/18 A298 RMK A01 T03620176  RH  033%=      5-min Rain = 0
KOD1 210000Z 17016KT 36/18 A298 RMK A01 T03620175  RH  033%=      5-min Rain = 0
KOD1 210001Z 17014KT 36/18 A298 RMK A01 T03610176  RH  034%=      5-min Rain = 0
KOD1 210002Z 17016KT 36/18 A298 RMK A01 T03610177  RH  034%=      5-min Rain = 0
KOD1 210003Z 15014KT 36/18 A298 RMK A01 T03610175  RH  033%=      5-min Rain = 0
KOD1 210004Z 15018KT 36/17 A298 RMK A01 T03620170  RH  032%=      5-min Rain = 0
KOD1 210005Z 16014KT 36/17 A298 RMK A01 T03630170  RH  032%=      5-min Rain = 0
KOD1 210006Z 16015KT 36/17 A298 RMK A01 T03630173  RH  033%=      5-min Rain = 0
KOD1 210007Z 15017KT 36/17 A298 RMK A01 T03630174  RH  033%=      5-min Rain = 0
KOD1 210008Z 17017KT 36/18 A298 RMK A01 T03620175  RH  033%=      5-min Rain = 0
KOD1 210009Z 16016KT 36/18 A298 RMK A01 T03610175  RH  033%=      5-min Rain = 0
KOD1 210010Z 16012KT 36/18 A298 RMK A01 T03600177  RH  034%=      5-min Rain = 0
KOD1 210011Z 15016KT 36/18 A298 RMK A01 T03610177  RH  034%=      5-min Rain = 0
KOD1 210012Z 15017KT 36/18 A298 RMK A01 T03610176  RH  034%=      5-min Rain = 0
KOD1 210013Z 16015G21KT 36/18 A298 RMK A01 T03610179  RH  034%=      5-min Rain = 0
KOD1 210014Z 16016G21KT 36/18 A298 RMK A01 T03610179  RH  034%=      5-min Rain = 0
KOD1 210015Z 16018KT 36/18 A298 RMK A01 T03610180  RH  035%=      5-min Rain = 0
KOD1 210016Z 16014KT 36/18 A298 RMK A01 T03600180  RH  035%=      5-min Rain = 0
KOD1 210017Z 17013KT 36/18 A298 RMK A01 T03600182  RH  035%=      5-min Rain = 0
KOD1 210018Z 16014KT 36/18 A298 RMK A01 T03590181  RH  035%=      5-min Rain = 0
KOD1 210019Z 16014KT 36/18 A298 RMK A01 T03580181  RH  035%=      5-min Rain = 0
KOD1 210020Z 16012KT 36/18 A298 RMK A01 T03580183  RH  036%=      5-min Rain = 0
KOD1 210021Z 16014KT 36/18 A298 RMK A01 T03590184  RH  036%=      5-min Rain = 0
KOD1 210022Z 16015KT 36/18 A298 RMK A01 T03590184  RH  036%=      5-min Rain = 0
KOD1 210023Z 16015KT 36/18 A298 RMK A01 T03580184  RH  036%=      5-min Rain = 0
KOD1 210024Z 15016KT 36/18 A298 RMK A01 T03580184  RH  036%=      5-min Rain = 0
KOD1 210025Z 16017KT 36/18 A298 RMK A01 T03580183  RH  036%=      5-min Rain = 0
KOD1 210026Z 15017KT 36/18 A298 RMK A01 T03580183  RH  036%=      5-min Rain = 0
KOD1 210027Z 16018KT 36/18 A298 RMK A01 T03570181  RH  036%=      5-min Rain = 0
KOD1 210028Z 16017KT 36/18 A298 RMK A01 T03570182  RH  036%=      5-min Rain = 0
KOD1 210029Z 16016KT 36/18 A298 RMK A01 T03560182  RH  036%=      5-min Rain = 0
KOD1 210030Z 16014KT 36/18 A298 RMK A01 T03560182  RH  036%=      5-min Rain = 0
KOD1 210031Z 16016KT 36/18 A298 RMK A01 T03560182  RH  036%=      5-min Rain = 0
KOD1 210032Z 15014KT 36/18 A298 RMK A01 T03550183  RH  036%=      5-min Rain = 0
KOD1 210033Z 16014G19KT 36/19 A298 RMK A01 T03560185  RH  037%=      5-min Rain = 0
KOD1 210034Z 15016KT 36/18 A298 RMK A01 T03550184  RH  036%=      5-min Rain = 0
KOD1 210035Z 16012KT 36/19 A298 RMK A01 T03550185  RH  037%=      5-min Rain = 0
KOD1 210036Z 16012G18KT 36/19 A2981 RMK A01 T03550187  RH  037%=      5-min Rain = 0
KOD1 210037Z 16014KT 36/19 A2981 RMK A01 T03550185  RH  037%=      5-min Rain = 0
KOD1 210038Z 16013KT 35/19 A2981 RMK A01 T03540185  RH  037%=      5-min Rain = 0
KOD1 210039Z 16015KT 35/18 A2981 RMK A01 T03530183  RH  037%=      5-min Rain = 0
KOD1 210040Z 16015KT 35/18 A2981 RMK A01 T03530182  RH  036%=      5-min Rain = 0
KOD1 210041Z 16016KT 35/18 A2981 RMK A01 T03530182  RH  037%=      5-min Rain = 0
KOD1 210042Z 17015G20KT 35/18 A2981 RMK A01 T03520182  RH  037%=      5-min Rain = 0
KOD1 210043Z 16016KT 35/18 A2981 RMK A01 T03520182  RH  037%=      5-min Rain = 0
KOD1 210044Z 15015KT 35/18 A2981 RMK A01 T03510182  RH  037%=      5-min Rain = 0
KOD1 210045Z 15018KT 35/18 A2981 RMK A01 T03510182  RH  037%=      5-min Rain = 0
KOD1 210046Z 15017KT 35/18 A2981 RMK A01 T03520181  RH  036%=      5-min Rain = 0
KOD1 210047Z 15015G20KT 35/18 A2981 RMK A01 T03520182  RH  037%=      5-min Rain = 0
KOD1 210048Z 16013KT 35/18 A2981 RMK A01 T03520182  RH  037%=      5-min Rain = 0
KOD1 210049Z 16016KT 35/18 A2981 RMK A01 T03510182  RH  037%=      5-min Rain = 0
KOD1 210050Z 16014KT 35/18 A2981 RMK A01 T03510182  RH  037%=      5-min Rain = 0
KOD1 210051Z 16016KT 35/18 A2981 RMK A01 T03510181  RH  037%=      5-min Rain = 0
KOD1 210052Z 15015KT 35/18 A2981 RMK A01 T03500181  RH  037%=      5-min Rain = 0
KOD1 210053Z 15014KT 35/18 A2981 RMK A01 T03500180  RH  037%=      5-min Rain = 0
KOD1 210054Z 15015KT 35/18 A2981 RMK A01 T03500180  RH  037%=      5-min Rain = 0
KOD1 210055Z 15015KT 35/18 A2981 RMK A01 T03500180  RH  037%=      5-min Rain = 0
KOD1 210056Z 15017KT 35/18 A2981 RMK A01 T03500180  RH  037%=      5-min Rain = 0
KOD1 210057Z 16015KT 35/18 A2981 RMK A01 T03500181  RH  037%=      5-min Rain = 0
KOD1 210058Z 16015KT 35/18 A2981 RMK A01 T03490181  RH  037%=      5-min Rain = 0
KOD1 210059Z 15014KT 35/18 A2981 RMK A01 T03490181  RH  037%=      5-min Rain = 0
KOD1 210100Z 15014KT 35/18 A2982 RMK A01 T03480180  RH  037%=      5-min Rain = 0
KOD1 210101Z 14013G18KT 35/18 A2982 RMK A01 T03480180  RH  037%=      5-min Rain = 0
KOD1 210102Z 15014G19KT 35/18 A2982 RMK A01 T03480180  RH  037%=      5-min Rain = 0
KOD1 210103Z 15015KT 35/18 A2982 RMK A01 T03480181  RH  037%=      5-min Rain = 0
KOD1 210104Z 15015KT 35/18 A2982 RMK A01 T03470180  RH  037%=      5-min Rain = 0
KOD1 210105Z 15015KT 35/18 A2982 RMK A01 T03470180  RH  037%=      5-min Rain = 0
KOD1 210106Z 15015KT 35/18 A2982 RMK A01 T03460180  RH  037%=      5-min Rain = 0
KOD1 210107Z 15018KT 35/18 A2982 RMK A01 T03460179  RH  037%=      5-min Rain = 0
KOD1 210108Z 14015KT 35/18 A2982 RMK A01 T03460180  RH  037%=      5-min Rain = 0
KOD1 210109Z 14015KT 35/18 A2982 RMK A01 T03450180  RH  038%=      5-min Rain = 0
KOD1 210110Z 15017KT 35/18 A2982 RMK A01 T03450180  RH  038%=      5-min Rain = 0
KOD1 210111Z 15015KT 35/18 A2982 RMK A01 T03450179  RH  038%=      5-min Rain = 0
KOD1 210112Z 15017KT 35/18 A2982 RMK A01 T03450179  RH  037%=      5-min Rain = 0
KOD1 210113Z 15016G21KT 35/18 A2982 RMK A01 T03450179  RH  037%=      5-min Rain = 0
KOD1 210114Z 15013KT 34/18 A2982 RMK A01 T03440180  RH  038%=      5-min Rain = 0
KOD1 210115Z 14015KT 34/18 A2982 RMK A01 T03430179  RH  038%=      5-min Rain = 0
KOD1 210116Z 15014KT 34/18 A2982 RMK A01 T03430179  RH  038%=      5-min Rain = 0
KOD1 210117Z 15016KT 34/18 A2982 RMK A01 T03430179  RH  038%=      5-min Rain = 0
KOD1 210118Z 15018KT 34/18 A2982 RMK A01 T03420178  RH  038%=      5-min Rain = 0
KOD1 210119Z 15019KT 34/18 A2982 RMK A01 T03420177  RH  038%=      5-min Rain = 0
KOD1 210120Z 14018KT 34/18 A2982 RMK A01 T03420177  RH  038%=      5-min Rain = 0
KOD1 210121Z 14017KT 34/18 A2982 RMK A01 T03420177  RH  038%=      5-min Rain = 0
KOD1 210122Z 15014KT 34/18 A2982 RMK A01 T03420178  RH  038%=      5-min Rain = 0
KOD1 210123Z 14013KT 34/18 A2982 RMK A01 T03410178  RH  038%=      5-min Rain = 0
KOD1 210124Z 14013KT 34/18 A2982 RMK A01 T03400178  RH  038%=      5-min Rain = 0
KOD1 210125Z 15015KT 34/18 A2982 RMK A01 T03400178  RH  038%=      5-min Rain = 0
KOD1 210126Z 14015KT 34/18 A2982 RMK A01 T03400177  RH  038%=      5-min Rain = 0
KOD1 210127Z 15015KT 34/18 A2982 RMK A01 T03400177  RH  038%=      5-min Rain = 0
KOD1 210128Z 15015KT 34/18 A2982 RMK A01 T03390176  RH  038%=      5-min Rain = 0
KOD1 210129Z 15015KT 34/18 A2982 RMK A01 T03390176  RH  038%=      5-min Rain = 0
KOD1 210130Z 14015KT 34/17 A2982 RMK A01 T03380174  RH  038%=      5-min Rain = 0
KOD1 210131Z 14018KT 34/17 A2982 RMK A01 T03380173  RH  037%=      5-min Rain = 0
KOD1 210132Z 15016KT 34/17 A2982 RMK A01 T03390173  RH  037%=      5-min Rain = 0
KOD1 210133Z 15016KT 34/17 A2982 RMK A01 T03380173  RH  037%=      5-min Rain = 0
KOD1 210134Z 15016KT 34/17 A2982 RMK A01 T03380173  RH  037%=      5-min Rain = 0
KOD1 210135Z 15011KT 34/17 A2982 RMK A01 T03380173  RH  038%=      5-min Rain = 0
KOD1 210136Z 15012KT 34/17 A2982 RMK A01 T03360174  RH  038%=      5-min Rain = 0
KOD1 210137Z 15013KT 34/17 A2982 RMK A01 T03360173  RH  038%=      5-min Rain = 0
KOD1 210138Z 14013KT 34/17 A2982 RMK A01 T03360173  RH  038%=      5-min Rain = 0
KOD1 210139Z 15012KT 34/17 A2982 RMK A01 T03350174  RH  038%=      5-min Rain = 0
KOD1 210140Z 15015KT 34/17 A2982 RMK A01 T03350173  RH  038%=      5-min Rain = 0
KOD1 210141Z 15013KT 34/17 A2982 RMK A01 T03360173  RH  038%=      5-min Rain = 0
KOD1 210142Z 15014KT 34/17 A2982 RMK A01 T03350173  RH  038%=      5-min Rain = 0
KOD1 210143Z 14013KT 34/17 A2982 RMK A01 T03350173  RH  038%=      5-min Rain = 0
KOD1 210144Z 15013KT 33/17 A2982 RMK A01 T03340173  RH  038%=      5-min Rain = 0
KOD1 210145Z 14014KT 33/17 A2982 RMK A01 T03340173  RH  038%=      5-min Rain = 0
KOD1 210146Z 15013KT 33/17 A2982 RMK A01 T03340172  RH  038%=      5-min Rain = 0
KOD1 210147Z 14014KT 33/17 A2982 RMK A01 T03340172  RH  038%=      5-min Rain = 0
KOD1 210148Z 14013KT 33/17 A2982 RMK A01 T03340172  RH  038%=      5-min Rain = 0
KOD1 210149Z 14013KT 33/17 A2982 RMK A01 T03340172  RH  038%=      5-min Rain = 0
KOD1 210150Z 15013KT 33/17 A2982 RMK A01 T03330172  RH  038%=      5-min Rain = 0
KOD1 210151Z 15013KT 33/17 A2982 RMK A01 T03320172  RH  038%=      5-min Rain = 0
KOD1 210152Z 15013KT 33/17 A2982 RMK A01 T03320172  RH  039%=      5-min Rain = 0
KOD1 210153Z 15012KT 33/17 A2982 RMK A01 T03310171  RH  039%=      5-min Rain = 0
KOD1 210154Z 14013G18KT 33/17 A2982 RMK A01 T03310171  RH  039%=      5-min Rain = 0
KOD1 210155Z 14012KT 33/17 A2982 RMK A01 T03310171  RH  038%=      5-min Rain = 0
KOD1 210156Z 15013KT 33/17 A2982 RMK A01 T03310171  RH  039%=      5-min Rain = 0
KOD1 210157Z 15014KT 33/17 A2982 RMK A01 T03300171  RH  039%=      5-min Rain = 0
KOD1 210158Z 15014KT 33/17 A2982 RMK A01 T03300171  RH  039%=      5-min Rain = 0
KOD1 210159Z 15014KT 33/17 A2982 RMK A01 T03300170  RH  038%=      5-min Rain = 0
KOD1 210200Z 15015KT 33/17 A2982 RMK A01 T03300170  RH  038%=      5-min Rain = 0
KOD1 210201Z 15013KT 33/17 A2982 RMK A01 T03300171  RH  039%=      5-min Rain = 0
KOD1 210202Z 15014KT 33/17 A2982 RMK A01 T03300170  RH  039%=      5-min Rain = 0
KOD1 210203Z 15013KT 33/17 A2982 RMK A01 T03300171  RH  039%=      5-min Rain = 0
KOD1 210204Z 15011KT 33/17 A2982 RMK A01 T03290171  RH  039%=      5-min Rain = 0
KOD1 210205Z 15011KT 33/17 A2982 RMK A01 T03280171  RH  039%=      5-min Rain = 0
KOD1 210206Z 15012KT 33/17 A2982 RMK A01 T03270171  RH  039%=      5-min Rain = 0
KOD1 210207Z 14013KT 33/17 A2982 RMK A01 T03270171  RH  039%=      5-min Rain = 0
KOD1 210208Z 14012KT 33/17 A2982 RMK A01 T03270172  RH  039%=      5-min Rain = 0
KOD1 210209Z 14012KT 33/17 A2982 RMK A01 T03270171  RH  039%=      5-min Rain = 0
KOD1 210210Z 15012KT 33/17 A2982 RMK A01 T03270172  RH  040%=      5-min Rain = 0
KOD1 210211Z 14014KT 33/17 A2982 RMK A01 T03270171  RH  039%=      5-min Rain = 0
KOD1 210212Z 15014KT 33/17 A2982 RMK A01 T03270171  RH  039%=      5-min Rain = 0
KOD1 210213Z 15014KT 33/17 A2982 RMK A01 T03270171  RH  039%=      5-min Rain = 0
KOD1 210214Z 15014KT 33/17 A2982 RMK A01 T03270172  RH  040%=      5-min Rain = 0
KOD1 210215Z 14014KT 33/17 A2982 RMK A01 T03270172  RH  040%=      5-min Rain = 0
KOD1 210216Z 15013KT 33/17 A2982 RMK A01 T03260172  RH  040%=      5-min Rain = 0
KOD1 210217Z 14012KT 33/17 A2982 RMK A01 T03260172  RH  040%=      5-min Rain = 0
KOD1 210218Z 14013KT 33/17 A2982 RMK A01 T03260172  RH  040%=      5-min Rain = 0
KOD1 210219Z 15013KT 33/17 A2982 RMK A01 T03260172  RH  040%=      5-min Rain = 0
KOD1 210220Z 15012KT 33/17 A2982 RMK A01 T03260173  RH  040%=      5-min Rain = 0
KOD1 210221Z 14013KT 33/17 A2982 RMK A01 T03250173  RH  040%=      5-min Rain = 0
KOD1 210222Z 15012KT 33/17 A2982 RMK A01 T03250173  RH  040%=      5-min Rain = 0
KOD1 210223Z 14013KT 32/17 A2982 RMK A01 T03240173  RH  040%=      5-min Rain = 0
KOD1 210224Z 15012KT 32/17 A2982 RMK A01 T03240173  RH  041%=      5-min Rain = 0
KOD1 210225Z 15011KT 32/17 A2982 RMK A01 T03230174  RH  041%=      5-min Rain = 0
KOD1 210226Z 14011KT 32/17 A2982 RMK A01 T03220174  RH  041%=      5-min Rain = 0
KOD1 210227Z 14011KT 32/17 A2982 RMK A01 T03220174  RH  041%=      5-min Rain = 0
KOD1 210228Z 14010KT 32/17 A2982 RMK A01 T03210174  RH  042%=      5-min Rain = 0
KOD1 210229Z 15011KT 32/17 A2982 RMK A01 T03200174  RH  042%=      5-min Rain = 0
KOD1 210230Z 14010KT 32/17 A2982 RMK A01 T03200174  RH  042%=      5-min Rain = 0
KOD1 210231Z 14010KT 32/17 A2982 RMK A01 T03190174  RH  042%=      5-min Rain = 0
KOD1 210232Z 14010KT 32/18 A2982 RMK A01 T03190175  RH  042%=      5-min Rain = 0
KOD1 210233Z 14011KT 32/18 A2983 RMK A01 T03180175  RH  042%=      5-min Rain = 0
KOD1 210234Z 14009KT 32/18 A2983 RMK A01 T03190175  RH  042%=      5-min Rain = 0
KOD1 210235Z 14010KT 32/18 A2983 RMK A01 T03180175  RH  042%=      5-min Rain = 0
KOD1 210236Z 14010KT 32/18 A2983 RMK A01 T03180175  RH  043%=      5-min Rain = 0
KOD1 210237Z 14011KT 32/18 A2983 RMK A01 T03180175  RH  042%=      5-min Rain = 0
KOD1 210238Z 14009KT 32/18 A2983 RMK A01 T03180176  RH  043%=      5-min Rain = 0
KOD1 210239Z 14010KT 32/18 A2983 RMK A01 T03180175  RH  043%=      5-min Rain = 0
KOD1 210240Z 14010KT 32/18 A2983 RMK A01 T03180175  RH  043%=      5-min Rain = 0
KOD1 210241Z 14010KT 32/18 A2983 RMK A01 T03180176  RH  043%=      5-min Rain = 0
KOD1 210242Z 14011KT 32/18 A2983 RMK A01 T03180176  RH  043%=      5-min Rain = 0
KOD1 210243Z 14010KT 32/18 A2983 RMK A01 T03180176  RH  043%=      5-min Rain = 0
KOD1 210244Z 14009KT 32/18 A2983 RMK A01 T03170176  RH  043%=      5-min Rain = 0
KOD1 210245Z 14010KT 32/18 A2983 RMK A01 T03160176  RH  043%=      5-min Rain = 0
KOD1 210246Z 14010KT 32/18 A2983 RMK A01 T03160176  RH  043%=      5-min Rain = 0
KOD1 210247Z 14012KT 32/18 A2983 RMK A01 T03160176  RH  043%=      5-min Rain = 0
KOD1 210248Z 14010KT 32/18 A2983 RMK A01 T03160176  RH  043%=      5-min Rain = 0
KOD1 210249Z 14011KT 32/18 A2983 RMK A01 T03150176  RH  044%=      5-min Rain = 0
KOD1 210250Z 13011KT 32/18 A2983 RMK A01 T03160177  RH  043%=      5-min Rain = 0
KOD1 210251Z 14011KT 32/18 A2983 RMK A01 T03150177  RH  044%=      5-min Rain = 0
KOD1 210252Z 13011KT 32/18 A2983 RMK A01 T03150177  RH  044%=      5-min Rain = 0
KOD1 210253Z 13010KT 32/18 A2983 RMK A01 T03150177  RH  044%=      5-min Rain = 0
KOD1 210254Z 14012KT 32/18 A2983 RMK A01 T03150177  RH  044%=      5-min Rain = 0
KOD1 210255Z 14012KT 32/18 A2983 RMK A01 T03150177  RH  044%=      5-min Rain = 0
KOD1 210256Z 13012KT 32/18 A2983 RMK A01 T03160177  RH  044%=      5-min Rain = 0
KOD1 210257Z 14010KT 32/18 A2983 RMK A01 T03150178  RH  044%=      5-min Rain = 0
KOD1 210258Z 13011KT 32/18 A2983 RMK A01 T03150178  RH  044%=      5-min Rain = 0
KOD1 210259Z 14011KT 31/18 A2983 RMK A01 T03140177  RH  044%=      5-min Rain = 0
KOD1 210300Z 14011KT 31/18 A2983 RMK A01 T03140177  RH  044%=      5-min Rain = 0
KOD1 210301Z 14011KT 31/18 A2983 RMK A01 T03140177  RH  044%=      5-min Rain = 0
KOD1 210302Z 14011KT 31/18 A2983 RMK A01 T03140178  RH  044%=      5-min Rain = 0
KOD1 210303Z 14011KT 31/18 A2983 RMK A01 T03140178  RH  044%=      5-min Rain = 0
KOD1 210304Z 14012KT 31/18 A2983 RMK A01 T03140177  RH  044%=      5-min Rain = 0
KOD1 210305Z 14012KT 31/18 A2983 RMK A01 T03140177  RH  044%=      5-min Rain = 0
KOD1 210306Z 14011KT 31/18 A2983 RMK A01 T03140178  RH  044%=      5-min Rain = 0
KOD1 210307Z 13011KT 31/18 A2983 RMK A01 T03140178  RH  044%=      5-min Rain = 0
KOD1 210308Z 14010KT 31/18 A2984 RMK A01 T03130178  RH  044%=      5-min Rain = 0
KOD1 210309Z 13010KT 31/18 A2984 RMK A01 T03120178  RH  045%=      5-min Rain = 0
KOD1 210310Z 13010KT 31/18 A2984 RMK A01 T03120178  RH  045%=      5-min Rain = 0
KOD1 210311Z 13010KT 31/18 A2984 RMK A01 T03110178  RH  045%=      5-min Rain = 0
KOD1 210312Z 13010KT 31/18 A2984 RMK A01 T03100178  RH  045%=      5-min Rain = 0
KOD1 210313Z 13009KT 31/18 A2984 RMK A01 T03100178  RH  045%=      5-min Rain = 0
KOD1 210314Z 13011KT 31/18 A2984 RMK A01 T03090178  RH  045%=      5-min Rain = 0
KOD1 210315Z 13011KT 31/18 A2984 RMK A01 T03090178  RH  046%=      5-min Rain = 0
KOD1 210316Z 12009KT 31/18 A2984 RMK A01 T03080179  RH  046%=      5-min Rain = 0
KOD1 210317Z 13009KT 31/18 A2984 RMK A01 T03070178  RH  046%=      5-min Rain = 0
KOD1 210318Z 13011KT 31/18 A2984 RMK A01 T03070178  RH  046%=      5-min Rain = 0
KOD1 210319Z 13011KT 31/18 A2984 RMK A01 T03070178  RH  046%=      5-min Rain = 0
KOD1 210320Z 13010KT 31/18 A2984 RMK A01 T03070178  RH  046%=      5-min Rain = 0
KOD1 210321Z 13010KT 31/18 A2984 RMK A01 T03060178  RH  046%=      5-min Rain = 0
KOD1 210322Z 13011KT 31/18 A2984 RMK A01 T03070178  RH  046%=      5-min Rain = 0
KOD1 210323Z 13010KT 31/18 A2984 RMK A01 T03070178  RH  046%=      5-min Rain = 0
KOD1 210324Z 13009KT 31/18 A2984 RMK A01 T03060178  RH  046%=      5-min Rain = 0
KOD1 210325Z 14010KT 31/18 A2984 RMK A01 T03050178  RH  047%=      5-min Rain = 0
KOD1 210326Z 13009KT 31/18 A2985 RMK A01 T03050178  RH  047%=      5-min Rain = 0
KOD1 210327Z 13009KT 30/18 A2985 RMK A01 T03040178  RH  047%=      5-min Rain = 0
KOD1 210328Z 13011G16KT 30/18 A2985 RMK A01 T03030178  RH  047%=      5-min Rain = 0
KOD1 210329Z 13011KT 30/18 A2985 RMK A01 T03040179  RH  047%=      5-min Rain = 0
KOD1 210330Z 13012KT 30/18 A2985 RMK A01 T03040179  RH  047%=      5-min Rain = 0
KOD1 210331Z 14012KT 30/18 A2985 RMK A01 T03040180  RH  047%=      5-min Rain = 0
KOD1 210332Z 13012KT 30/18 A2985 RMK A01 T03040180  RH  047%=      5-min Rain = 0
KOD1 210333Z 13013KT 30/18 A2985 RMK A01 T03040181  RH  048%=      5-min Rain = 0
KOD1 210334Z 13013KT 30/18 A2985 RMK A01 T03030181  RH  048%=      5-min Rain = 0
KOD1 210335Z 13012KT 30/18 A2985 RMK A01 T03030181  RH  048%=      5-min Rain = 0
KOD1 210336Z 13012KT 30/18 A2985 RMK A01 T03030182  RH  048%=      5-min Rain = 0
KOD1 210337Z 13012KT 30/18 A2985 RMK A01 T03020182  RH  049%=      5-min Rain = 0
KOD1 210338Z 13011KT 30/18 A2985 RMK A01 T03010183  RH  049%=      5-min Rain = 0
KOD1 210339Z 13011KT 30/18 A2985 RMK A01 T03010183  RH  049%=      5-min Rain = 0
KOD1 210340Z 13011KT 30/18 A2985 RMK A01 T03000183  RH  049%=      5-min Rain = 0
KOD1 210341Z 14011KT 30/18 A2985 RMK A01 T02990183  RH  050%=      5-min Rain = 0
KOD1 210342Z 13011KT 30/18 A2985 RMK A01 T02990183  RH  050%=      5-min Rain = 0
KOD1 210343Z 13011KT 30/18 A2985 RMK A01 T02990184  RH  050%=      5-min Rain = 0
KOD1 210344Z 13012KT 30/18 A2985 RMK A01 T03000184  RH  050%=      5-min Rain = 0
KOD1 210345Z 13012KT 30/18 A2985 RMK A01 T03010184  RH  050%=      5-min Rain = 0
KOD1 210346Z 13011KT 30/19 A2985 RMK A01 T03010185  RH  050%=      5-min Rain = 0
KOD1 210347Z 13011KT 30/19 A2985 RMK A01 T03000185  RH  050%=      5-min Rain = 0
KOD1 210348Z 14013KT 30/19 A2985 RMK A01 T02990185  RH  050%=      5-min Rain = 0
KOD1 210349Z 14012KT 30/19 A2985 RMK A01 T02990186  RH  050%=      5-min Rain = 0
KOD1 210350Z 14012KT 30/19 A2985 RMK A01 T02990186  RH  051%=      5-min Rain = 0
KOD1 210351Z 13010KT 30/19 A2985 RMK A01 T02980186  RH  051%=      5-min Rain = 0
KOD1 210352Z 14011KT 30/19 A2985 RMK A01 T02970186  RH  051%=      5-min Rain = 0
KOD1 210353Z 13012KT 30/19 A2985 RMK A01 T02970187  RH  052%=      5-min Rain = 0
KOD1 210354Z 14012KT 30/19 A2985 RMK A01 T02970187  RH  052%=      5-min Rain = 0
KOD1 210355Z 14012KT 30/19 A2985 RMK A01 T02970187  RH  051%=      5-min Rain = 0
KOD1 210356Z 14011KT 30/19 A2985 RMK A01 T02970187  RH  052%=      5-min Rain = 0
KOD1 210357Z 13012KT 30/19 A2985 RMK A01 T02970187  RH  052%=      5-min Rain = 0
KOD1 210358Z 13012KT 30/19 A2985 RMK A01 T02970187  RH  052%=      5-min Rain = 0
KOD1 210359Z 13012KT 30/19 A2985 RMK A01 T02970188  RH  052%=      5-min Rain = 0
KOD1 210400Z 13012KT 30/19 A2985 RMK A01 T02970188  RH  052%=      5-min Rain = 0
KOD1 210401Z 13012KT 30/19 A2985 RMK A01 T02970188  RH  052%=      5-min Rain = 0
KOD1 210402Z 14011KT 30/19 A2985 RMK A01 T02970188  RH  052%=      5-min Rain = 0
KOD1 210403Z 13012KT 30/19 A2986 RMK A01 T02970189  RH  052%=      5-min Rain = 0
KOD1 210404Z 14012KT 30/19 A2986 RMK A01 T02970188  RH  052%=      5-min Rain = 0
KOD1 210405Z 13013KT 30/19 A2986 RMK A01 T02970189  RH  052%=      5-min Rain = 0
KOD1 210406Z 14011KT 30/19 A2986 RMK A01 T02970189  RH  052%=      5-min Rain = 0
KOD1 210407Z 14013KT 30/19 A2986 RMK A01 T02970189  RH  052%=      5-min Rain = 0
KOD1 210408Z 13013KT 30/19 A2986 RMK A01 T02970189  RH  052%=      5-min Rain = 0
KOD1 210409Z 13014KT 30/19 A2986 RMK A01 T02980189  RH  052%=      5-min Rain = 0
KOD1 210410Z 14013KT 30/19 A2986 RMK A01 T02990189  RH  052%=      5-min Rain = 0
KOD1 210411Z 14013KT 30/19 A2986 RMK A01 T02990190  RH  052%=      5-min Rain = 0
KOD1 210412Z 14012KT 30/19 A2986 RMK A01 T02980190  RH  052%=      5-min Rain = 0
KOD1 210413Z 14014KT 30/19 A2986 RMK A01 T02990189  RH  052%=      5-min Rain = 0
KOD1 210414Z 14012KT 30/19 A2986 RMK A01 T02990189  RH  052%=      5-min Rain = 0
KOD1 210415Z 14012KT 30/19 A2986 RMK A01 T02990190  RH  052%=      5-min Rain = 0
KOD1 210416Z 14013KT 30/19 A2986 RMK A01 T02980190  RH  052%=      5-min Rain = 0
KOD1 210417Z 14013KT 30/19 A2986 RMK A01 T02980190  RH  052%=      5-min Rain = 0
KOD1 210418Z 14012KT 30/19 A2986 RMK A01 T02980190  RH  052%=      5-min Rain = 0
KOD1 210419Z 14014KT 30/19 A2986 RMK A01 T02980190  RH  052%=      5-min Rain = 0
KOD1 210420Z 14011KT 30/19 A2986 RMK A01 T02990190  RH  052%=      5-min Rain = 0
KOD1 210421Z 14011KT 30/19 A2986 RMK A01 T02980190  RH  052%=      5-min Rain = 0
KOD1 210422Z 14012KT 30/19 A2986 RMK A01 T02980190  RH  052%=      5-min Rain = 0
KOD1 210423Z 14011KT 30/19 A2987 RMK A01 T02980190  RH  052%=      5-min Rain = 0
KOD1 210424Z 14012KT 30/19 A2987 RMK A01 T02980190  RH  052%=      5-min Rain = 0
KOD1 210425Z 14012KT 30/19 A2987 RMK A01 T02980190  RH  053%=      5-min Rain = 0
KOD1 210426Z 13012KT 30/19 A2987 RMK A01 T02970191  RH  053%=      5-min Rain = 0
KOD1 210427Z 14012KT 30/19 A2986 RMK A01 T02970190  RH  053%=      5-min Rain = 0
KOD1 210428Z 14011KT 30/19 A2986 RMK A01 T02970190  RH  053%=      5-min Rain = 0
KOD1 210429Z 14012KT 30/19 A2986 RMK A01 T02970190  RH  053%=      5-min Rain = 0
KOD1 210430Z 14012KT 30/19 A2986 RMK A01 T02980190  RH  052%=      5-min Rain = 0
KOD1 210431Z 14012KT 30/19 A2986 RMK A01 T02970190  RH  053%=      5-min Rain = 0
KOD1 210432Z 15015KT 30/19 A2986 RMK A01 T02980190  RH  052%=      5-min Rain = 0
KOD1 210433Z 14012KT 30/19 A2986 RMK A01 T02990190  RH  052%=      5-min Rain = 0
KOD1 210434Z 14011KT 30/19 A2986 RMK A01 T02990191  RH  052%=      5-min Rain = 0
KOD1 210435Z 14013KT 30/19 A2986 RMK A01 T02980191  RH  052%=      5-min Rain = 0
KOD1 210436Z 14014KT 30/19 A2986 RMK A01 T02990190  RH  052%=      5-min Rain = 0
KOD1 210437Z 14012KT 30/19 A2986 RMK A01 T03000191  RH  052%=      5-min Rain = 0
KOD1 210438Z 14013KT 30/19 A2986 RMK A01 T02990191  RH  052%=      5-min Rain = 0
KOD1 210439Z 14012KT 30/19 A2986 RMK A01 T02990191  RH  052%=      5-min Rain = 0
KOD1 210440Z 15012KT 30/19 A2987 RMK A01 T02990191  RH  052%=      5-min Rain = 0
KOD1 210441Z 15013KT 30/19 A2986 RMK A01 T02990191  RH  052%=      5-min Rain = 0
KOD1 210442Z 14011KT 30/19 A2987 RMK A01 T02990191  RH  052%=      5-min Rain = 0
KOD1 210443Z 14011KT 30/19 A2987 RMK A01 T02980192  RH  053%=      5-min Rain = 0
KOD1 210444Z 14013KT 30/19 A2986 RMK A01 T02970192  RH  053%=      5-min Rain = 0
KOD1 210445Z 14011KT 30/19 A2986 RMK A01 T02970192  RH  053%=      5-min Rain = 0
KOD1 210446Z 14011KT 30/19 A2986 RMK A01 T02970192  RH  053%=      5-min Rain = 0
KOD1 210447Z 14012KT 30/19 A2986 RMK A01 T02960192  RH  054%=      5-min Rain = 0
KOD1 210448Z 14012KT 30/19 A2986 RMK A01 T02960192  RH  054%=      5-min Rain = 0
KOD1 210449Z 14011KT 30/19 A2987 RMK A01 T02960192  RH  054%=      5-min Rain = 0
KOD1 210450Z 14011KT 30/19 A2987 RMK A01 T02960192  RH  054%=      5-min Rain = 0
KOD1 210451Z 14012KT 30/19 A2987 RMK A01 T02950192  RH  054%=      5-min Rain = 0
KOD1 210452Z 14014KT 30/19 A2987 RMK A01 T02950192  RH  054%=      5-min Rain = 0
KOD1 210453Z 14012KT 30/19 A2987 RMK A01 T02960192  RH  054%=      5-min Rain = 0
KOD1 210454Z 14011KT 30/19 A2987 RMK A01 T02960193  RH  054%=      5-min Rain = 0
KOD1 210455Z 14013KT 30/19 A2987 RMK A01 T02950192  RH  054%=      5-min Rain = 0
KOD1 210456Z 14013KT 30/19 A2987 RMK A01 T02960192  RH  054%=      5-min Rain = 0
KOD1 210457Z 14011KT 30/19 A2987 RMK A01 T02950192  RH  054%=      5-min Rain = 0
KOD1 210458Z 14013KT 30/19 A2987 RMK A01 T02960192  RH  054%=      5-min Rain = 0
KOD1 210459Z 14013KT 30/19 A2987 RMK A01 T02960193  RH  054%=      5-min Rain = 0

Page generated in 0.0717 seconds.